Time,TemperatureF,DewpointF,PressureIn,WindDirection,WindDirectionDegrees,WindSpeedMPH,WindSpeedGustMPH,Humidity,HourlyPrecipIn,Conditions,Clouds,dailyrainin,SoftwareType,DateUTC
2013-10-30 00:00:00,59.9,32.2,24.86,ENE,59,5.4,5.4,35,0.00,,---,0.00,VWS V14.01,2013-10-30 05:00:00,
2013-10-30 00:01:00,59.9,32.2,24.86,ENE,59,5.4,5.4,35,0.00,,---,0.00,VWS V14.01,2013-10-30 05:01:00,
2013-10-30 00:02:00,59.9,32.2,24.86,ENE,59,5.4,5.4,35,0.00,,---,0.00,VWS V14.01,2013-10-30 05:02:00,
2013-10-30 00:03:00,59.9,32.2,24.86,ENE,59,5.4,5.4,35,0.00,,---,0.00,VWS V14.01,2013-10-30 05:03:00,
2013-10-30 00:04:00,59.9,32.2,24.86,NW,325,0.0,0.0,35,0.00,,---,0.00,VWS V14.01,2013-10-30 05:04:00,
2013-10-30 00:06:00,59.9,32.2,24.86,NW,325,0.0,0.0,35,0.00,,---,0.00,VWS V14.01,2013-10-30 05:06:00,
2013-10-30 00:07:00,59.9,32.2,24.86,WNW,294,0.0,0.0,35,0.00,,---,0.00,VWS V14.01,2013-10-30 05:07:00,
2013-10-30 00:08:00,59.7,32.0,24.86,WNW,294,0.0,0.0,35,0.00,,---,0.00,VWS V14.01,2013-10-30 05:08:00,
2013-10-30 00:09:00,59.7,32.0,24.86,WNW,294,0.0,0.0,35,0.00,,---,0.00,VWS V14.01,2013-10-30 05:09:00,
2013-10-30 00:11:00,59.7,32.0,24.86,WNW,294,0.0,0.0,35,0.00,,---,0.00,VWS V14.01,2013-10-30 05:11:00,
2013-10-30 00:12:00,59.7,32.0,24.86,North,0,0.0,0.0,35,0.00,,---,0.00,VWS V14.01,2013-10-30 05:12:00,
2013-10-30 00:13:00,59.7,32.0,24.86,North,353,0.0,0.0,35,0.00,,---,0.00,VWS V14.01,2013-10-30 05:13:00,
2013-10-30 00:14:00,59.7,32.0,24.86,North,353,0.0,0.0,35,0.00,,---,0.00,VWS V14.01,2013-10-30 05:14:00,
2013-10-30 00:16:00,59.7,32.0,24.86,North,353,0.0,0.0,35,0.00,,---,0.00,VWS V14.01,2013-10-30 05:16:00,
2013-10-30 00:17:00,59.7,32.0,24.86,North,353,0.0,0.0,35,0.00,,---,0.00,VWS V14.01,2013-10-30 05:17:00,
2013-10-30 00:19:00,59.7,32.0,24.86,NNE,29,0.0,0.0,35,0.00,,---,0.00,VWS V14.01,2013-10-30 05:19:00,
2013-10-30 00:22:00,59.7,32.0,24.86,NNE,29,0.0,0.0,35,0.00,,---,0.00,VWS V14.01,2013-10-30 05:22:00,
2013-10-30 00:23:00,59.7,32.0,24.86,NNE,29,0.0,0.0,35,0.00,,---,0.00,VWS V14.01,2013-10-30 05:23:00,
2013-10-30 00:24:00,59.9,32.9,24.86,NNE,29,0.0,0.0,36,0.00,,---,0.00,VWS V14.01,2013-10-30 05:24:00,
2013-10-30 00:27:00,59.9,32.9,24.86,NNE,29,0.0,0.0,36,0.00,,---,0.00,VWS V14.01,2013-10-30 05:27:00,
2013-10-30 00:28:00,59.9,32.9,24.86,NNE,29,0.0,0.0,36,0.00,,---,0.00,VWS V14.01,2013-10-30 05:28:00,
2013-10-30 00:29:00,59.9,32.9,24.86,NNE,29,0.0,0.0,36,0.00,,---,0.00,VWS V14.01,2013-10-30 05:29:00,
2013-10-30 00:32:00,60.1,33.1,24.86,NNE,29,0.0,0.0,36,0.00,,---,0.00,VWS V14.01,2013-10-30 05:32:00,
2013-10-30 00:33:00,60.1,33.1,24.86,NNE,29,0.0,0.0,36,0.00,,---,0.00,VWS V14.01,2013-10-30 05:33:00,
2013-10-30 00:34:00,60.1,33.1,24.86,NNE,29,0.0,0.0,36,0.00,,---,0.00,VWS V14.01,2013-10-30 05:34:00,
2013-10-30 00:37:00,60.1,33.1,24.86,NNE,29,0.0,0.0,36,0.00,,---,0.00,VWS V14.01,2013-10-30 05:37:00,
2013-10-30 00:38:00,60.1,33.1,24.86,NNE,29,0.0,0.0,36,0.00,,---,0.00,VWS V14.01,2013-10-30 05:38:00,
2013-10-30 00:39:00,59.7,33.4,24.86,NNE,29,0.0,0.0,37,0.00,,---,0.00,VWS V14.01,2013-10-30 05:39:00,
2013-10-30 00:42:00,59.7,33.4,24.86,NNE,29,0.0,0.0,37,0.00,,---,0.00,VWS V14.01,2013-10-30 05:42:00,
2013-10-30 00:43:00,59.7,33.4,24.86,NNE,29,0.0,0.0,37,0.00,,---,0.00,VWS V14.01,2013-10-30 05:43:00,
2013-10-30 00:44:00,59.7,33.4,24.86,NNE,29,0.0,0.0,37,0.00,,---,0.00,VWS V14.01,2013-10-30 05:44:00,
2013-10-30 00:48:00,59.7,34.7,24.86,NNE,29,0.0,0.0,39,0.00,,---,0.00,VWS V14.01,2013-10-30 05:48:00,
2013-10-30 00:49:00,59.9,35.5,24.86,NNE,29,0.0,0.0,40,0.00,,---,0.00,VWS V14.01,2013-10-30 05:49:00,
2013-10-30 00:50:00,59.9,35.5,24.86,NNE,29,0.0,0.0,40,0.00,,---,0.00,VWS V14.01,2013-10-30 05:50:00,
2013-10-30 00:53:00,59.9,35.5,24.86,NW,318,3.6,3.6,40,0.00,,---,0.00,VWS V14.01,2013-10-30 05:53:00,
2013-10-30 00:54:00,60.3,36.5,24.86,NW,318,3.6,3.6,41,0.00,,---,0.00,VWS V14.01,2013-10-30 05:54:00,
2013-10-30 00:55:00,60.3,36.5,24.86,NW,318,0.0,0.0,41,0.00,,---,0.00,VWS V14.01,2013-10-30 05:55:00,
2013-10-30 00:56:00,60.3,36.5,24.86,NW,318,0.0,0.0,41,0.00,,---,0.00,VWS V14.01,2013-10-30 05:56:00,
2013-10-30 00:58:00,60.3,36.5,24.86,NW,318,0.0,0.0,41,0.00,,---,0.00,VWS V14.01,2013-10-30 05:58:00,
2013-10-30 00:59:00,60.3,36.5,24.86,NW,318,0.0,0.0,41,0.00,,---,0.00,VWS V14.01,2013-10-30 05:59:00,
2013-10-30 01:00:00,60.3,36.5,24.86,NW,318,0.0,0.0,41,0.00,,---,0.00,VWS V14.01,2013-10-30 06:00:00,
2013-10-30 01:01:00,60.3,36.5,24.86,NW,318,3.1,3.1,41,0.00,,---,0.00,VWS V14.01,2013-10-30 06:01:00,
2013-10-30 01:03:00,60.3,36.5,24.86,NW,318,2.7,2.7,41,0.00,,---,0.00,VWS V14.01,2013-10-30 06:03:00,
2013-10-30 01:04:00,60.3,36.5,24.86,NW,318,0.0,2.7,41,0.00,,---,0.00,VWS V14.01,2013-10-30 06:04:00,
2013-10-30 01:05:00,60.1,36.3,24.86,NW,318,0.0,0.0,41,0.00,,---,0.00,VWS V14.01,2013-10-30 06:05:00,
2013-10-30 01:06:00,60.1,36.3,24.86,NW,318,0.0,0.0,41,0.00,,---,0.00,VWS V14.01,2013-10-30 06:06:00,
2013-10-30 01:08:00,60.1,36.3,24.86,NW,318,0.0,0.0,41,0.00,,---,0.00,VWS V14.01,2013-10-30 06:08:00,
2013-10-30 01:09:00,60.1,36.3,24.86,NW,318,0.0,0.0,41,0.00,,---,0.00,VWS V14.01,2013-10-30 06:09:00,
2013-10-30 01:10:00,59.9,36.8,24.86,NW,318,0.0,0.0,42,0.00,,---,0.00,VWS V14.01,2013-10-30 06:10:00,
2013-10-30 01:11:00,59.9,36.8,24.86,NW,318,0.0,0.0,42,0.00,,---,0.00,VWS V14.01,2013-10-30 06:11:00,
2013-10-30 01:13:00,59.9,36.8,24.86,NW,318,0.0,0.0,42,0.00,,---,0.00,VWS V14.01,2013-10-30 06:13:00,
2013-10-30 01:14:00,59.9,36.8,24.86,NW,318,0.0,0.0,42,0.00,,---,0.00,VWS V14.01,2013-10-30 06:14:00,
2013-10-30 01:16:00,59.9,36.8,24.86,NW,318,0.0,0.0,42,0.00,,---,0.00,VWS V14.01,2013-10-30 06:16:00,
2013-10-30 01:18:00,59.9,36.8,24.86,NW,318,0.0,0.0,42,0.00,,---,0.00,VWS V14.01,2013-10-30 06:18:00,
2013-10-30 01:20:00,60.1,37.5,24.86,NW,318,0.0,0.0,43,0.00,,---,0.00,VWS V14.01,2013-10-30 06:20:00,
2013-10-30 01:21:00,60.1,37.5,24.86,NW,318,0.0,0.0,43,0.00,,---,0.00,VWS V14.01,2013-10-30 06:21:00,
2013-10-30 01:22:00,60.1,37.5,24.86,NW,318,0.0,0.0,43,0.00,,---,0.00,VWS V14.01,2013-10-30 06:22:00,
2013-10-30 01:23:00,60.1,38.1,24.86,NW,318,0.0,0.0,44,0.00,,---,0.00,VWS V14.01,2013-10-30 06:23:00,
2013-10-30 01:26:00,60.1,38.1,24.86,NW,318,0.0,0.0,44,0.00,,---,0.00,VWS V14.01,2013-10-30 06:26:00,
2013-10-30 01:27:00,60.1,38.1,24.86,NW,318,0.0,0.0,44,0.00,,---,0.00,VWS V14.01,2013-10-30 06:27:00,
2013-10-30 01:28:00,60.1,38.1,24.86,NW,318,0.0,0.0,44,0.00,,---,0.00,VWS V14.01,2013-10-30 06:28:00,
2013-10-30 01:31:00,60.1,38.1,24.86,NW,318,0.0,0.0,44,0.00,,---,0.00,VWS V14.01,2013-10-30 06:31:00,
2013-10-30 01:32:00,60.3,38.8,24.86,NW,318,0.0,0.0,45,0.00,,---,0.00,VWS V14.01,2013-10-30 06:32:00,
2013-10-30 01:33:00,60.4,39.0,24.86,NW,318,0.0,0.0,45,0.00,,---,0.00,VWS V14.01,2013-10-30 06:33:00,
2013-10-30 01:36:00,60.4,39.0,24.86,NW,318,0.0,0.0,45,0.00,,---,0.00,VWS V14.01,2013-10-30 06:36:00,
2013-10-30 01:37:00,60.4,39.0,24.86,NW,318,0.0,0.0,45,0.00,,---,0.00,VWS V14.01,2013-10-30 06:37:00,
2013-10-30 01:39:00,60.4,39.0,24.86,North,349,0.0,0.0,45,0.00,,---,0.00,VWS V14.01,2013-10-30 06:39:00,
2013-10-30 01:41:00,60.8,39.9,24.86,NNW,330,0.0,0.0,46,0.00,,---,0.00,VWS V14.01,2013-10-30 06:41:00,
2013-10-30 01:42:00,60.8,39.9,24.86,NNW,330,0.0,0.0,46,0.00,,---,0.00,VWS V14.01,2013-10-30 06:42:00,
2013-10-30 01:43:00,61.0,40.1,24.86,NNW,330,0.0,0.0,46,0.00,,---,0.00,VWS V14.01,2013-10-30 06:43:00,
2013-10-30 01:44:00,61.0,40.1,24.86,NNW,330,0.0,0.0,46,0.00,,---,0.00,VWS V14.01,2013-10-30 06:44:00,
2013-10-30 01:46:00,61.0,40.1,24.86,NW,320,0.0,0.0,46,0.00,,---,0.00,VWS V14.01,2013-10-30 06:46:00,
2013-10-30 01:47:00,61.0,40.1,24.86,NW,320,0.0,0.0,46,0.00,,---,0.00,VWS V14.01,2013-10-30 06:47:00,
2013-10-30 01:48:00,61.0,40.1,24.86,NW,320,0.0,0.0,46,0.00,,---,0.00,VWS V14.01,2013-10-30 06:48:00,
2013-10-30 01:49:00,61.3,40.4,24.86,NW,320,0.0,0.0,46,0.00,,---,0.00,VWS V14.01,2013-10-30 06:49:00,
2013-10-30 01:52:00,61.3,40.4,24.86,NW,320,0.0,0.0,46,0.00,,---,0.00,VWS V14.01,2013-10-30 06:52:00,
2013-10-30 01:53:00,61.3,40.4,24.86,NW,320,0.0,0.0,46,0.00,,---,0.00,VWS V14.01,2013-10-30 06:53:00,
2013-10-30 01:55:00,61.3,41.0,24.86,NW,320,0.0,0.0,47,0.00,,---,0.00,VWS V14.01,2013-10-30 06:55:00,
2013-10-30 01:57:00,61.3,41.0,24.86,NW,320,0.0,0.0,47,0.00,,---,0.00,VWS V14.01,2013-10-30 06:57:00,
2013-10-30 01:58:00,61.3,41.0,24.86,NW,320,0.0,0.0,47,0.00,,---,0.00,VWS V14.01,2013-10-30 06:58:00,
2013-10-30 02:00:00,61.3,41.0,24.86,NW,320,0.0,0.0,47,0.00,,---,0.00,VWS V14.01,2013-10-30 07:00:00,
2013-10-30 02:02:00,61.3,41.0,24.86,NW,320,0.0,0.0,47,0.00,,---,0.00,VWS V14.01,2013-10-30 07:02:00,
2013-10-30 02:03:00,61.3,41.0,24.86,NW,320,0.0,0.0,47,0.00,,---,0.00,VWS V14.01,2013-10-30 07:03:00,
2013-10-30 02:05:00,61.3,41.0,24.86,NW,320,0.0,0.0,47,0.00,,---,0.00,VWS V14.01,2013-10-30 07:05:00,
2013-10-30 02:07:00,61.3,41.0,24.86,NW,320,0.0,0.0,47,0.00,,---,0.00,VWS V14.01,2013-10-30 07:07:00,
2013-10-30 02:08:00,61.3,41.0,24.86,NW,319,0.0,0.0,47,0.00,,---,0.00,VWS V14.01,2013-10-30 07:08:00,
2013-10-30 02:09:00,61.3,41.0,24.86,NW,319,0.0,0.0,47,0.00,,---,0.00,VWS V14.01,2013-10-30 07:09:00,
2013-10-30 02:10:00,61.3,41.0,24.86,NW,319,0.0,0.0,47,0.00,,---,0.00,VWS V14.01,2013-10-30 07:10:00,
2013-10-30 02:12:00,61.3,41.0,24.86,SSW,196,0.0,0.0,47,0.00,,---,0.00,VWS V14.01,2013-10-30 07:12:00,
2013-10-30 02:13:00,61.3,41.0,24.86,SSW,196,0.0,0.0,47,0.00,,---,0.00,VWS V14.01,2013-10-30 07:13:00,
2013-10-30 02:14:00,61.3,41.0,24.86,SSW,196,0.0,0.0,47,0.00,,---,0.00,VWS V14.01,2013-10-30 07:14:00,
2013-10-30 02:16:00,61.3,41.5,24.86,SSW,196,0.0,0.0,48,0.00,,---,0.00,VWS V14.01,2013-10-30 07:16:00,
2013-10-30 02:17:00,61.3,41.5,24.86,SSW,197,0.0,0.0,48,0.00,,---,0.00,VWS V14.01,2013-10-30 07:17:00,
2013-10-30 02:18:00,61.3,41.5,24.86,SSW,197,0.0,0.0,48,0.00,,---,0.00,VWS V14.01,2013-10-30 07:18:00,
2013-10-30 02:19:00,61.3,41.5,24.86,SSW,197,0.0,0.0,48,0.00,,---,0.00,VWS V14.01,2013-10-30 07:19:00,
2013-10-30 02:21:00,61.3,41.5,24.86,SSW,197,0.0,0.0,48,0.00,,---,0.00,VWS V14.01,2013-10-30 07:21:00,
2013-10-30 02:22:00,61.3,41.5,24.86,SSW,210,0.0,0.0,48,0.00,,---,0.00,VWS V14.01,2013-10-30 07:22:00,
2013-10-30 02:23:00,61.3,41.5,24.86,SSW,210,0.0,0.0,48,0.00,,---,0.00,VWS V14.01,2013-10-30 07:23:00,
2013-10-30 02:25:00,61.5,41.7,24.86,SSW,210,0.0,0.0,48,0.00,,---,0.00,VWS V14.01,2013-10-30 07:25:00,
2013-10-30 02:26:00,61.5,41.7,24.86,SSW,210,0.0,0.0,48,0.00,,---,0.00,VWS V14.01,2013-10-30 07:26:00,
2013-10-30 02:27:00,61.5,41.7,24.86,NW,322,4.0,4.0,48,0.00,,---,0.00,VWS V14.01,2013-10-30 07:27:00,
2013-10-30 02:28:00,61.5,41.7,24.86,NW,322,4.0,4.0,48,0.00,,---,0.00,VWS V14.01,2013-10-30 07:28:00,
2013-10-30 02:30:00,61.5,41.7,24.86,WNW,293,4.0,4.0,48,0.00,,---,0.00,VWS V14.01,2013-10-30 07:30:00,
2013-10-30 02:31:00,61.5,41.7,24.86,WNW,293,4.0,4.0,48,0.00,,---,0.00,VWS V14.01,2013-10-30 07:31:00,
2013-10-30 02:33:00,61.7,42.4,24.86,WNW,293,4.0,4.0,49,0.00,,---,0.00,VWS V14.01,2013-10-30 07:33:00,
2013-10-30 02:35:00,61.7,42.9,24.86,WNW,293,4.0,4.0,50,0.00,,---,0.00,VWS V14.01,2013-10-30 07:35:00,
2013-10-30 02:36:00,61.7,42.9,24.86,WNW,293,4.0,4.0,50,0.00,,---,0.00,VWS V14.01,2013-10-30 07:36:00,
2013-10-30 02:38:00,61.7,42.9,24.86,NW,321,2.7,2.7,50,0.00,,---,0.00,VWS V14.01,2013-10-30 07:38:00,
2013-10-30 02:39:00,61.7,42.9,24.86,NW,321,0.0,0.0,50,0.00,,---,0.00,VWS V14.01,2013-10-30 07:39:00,
2013-10-30 02:41:00,61.7,42.9,24.86,NW,321,0.0,0.0,50,0.00,,---,0.00,VWS V14.01,2013-10-30 07:41:00,
2013-10-30 02:43:00,61.7,42.9,24.86,NW,321,0.0,0.0,50,0.00,,---,0.00,VWS V14.01,2013-10-30 07:43:00,
2013-10-30 02:44:00,61.3,42.0,24.83,NW,321,0.0,0.0,49,0.00,,---,0.00,VWS V14.01,2013-10-30 07:44:00,
2013-10-30 02:46:00,61.2,41.9,24.83,NW,321,0.0,0.0,49,0.00,,---,0.00,VWS V14.01,2013-10-30 07:46:00,
2013-10-30 02:48:00,61.2,41.9,24.83,NW,321,0.0,0.0,49,0.00,,---,0.00,VWS V14.01,2013-10-30 07:48:00,
2013-10-30 02:49:00,60.6,41.4,24.83,NW,321,0.0,0.0,49,0.00,,---,0.00,VWS V14.01,2013-10-30 07:49:00,
2013-10-30 02:51:00,60.6,41.4,24.83,NW,321,0.0,0.0,49,0.00,,---,0.00,VWS V14.01,2013-10-30 07:51:00,
2013-10-30 02:53:00,60.6,41.4,24.83,NNW,340,0.0,0.0,49,0.00,,---,0.00,VWS V14.01,2013-10-30 07:53:00,
2013-10-30 02:54:00,60.6,41.4,24.83,NNW,340,0.0,0.0,49,0.00,,---,0.00,VWS V14.01,2013-10-30 07:54:00,
2013-10-30 02:56:00,60.6,41.4,24.83,NNW,348,0.0,0.0,49,0.00,,---,0.00,VWS V14.01,2013-10-30 07:56:00,
2013-10-30 02:57:00,60.6,41.4,24.83,NNW,348,0.0,0.0,49,0.00,,---,0.00,VWS V14.01,2013-10-30 07:57:00,
2013-10-30 02:58:00,60.1,41.4,24.83,NNW,348,0.0,0.0,50,0.00,,---,0.00,VWS V14.01,2013-10-30 07:58:00,
2013-10-30 02:59:00,60.1,41.4,24.83,NNW,348,0.0,0.0,50,0.00,,---,0.00,VWS V14.01,2013-10-30 07:59:00,
2013-10-30 03:01:00,60.1,41.4,24.83,NNW,348,0.0,0.0,50,0.00,,---,0.00,VWS V14.01,2013-10-30 08:01:00,
2013-10-30 03:02:00,60.1,41.4,24.83,NNW,348,0.0,0.0,50,0.00,,---,0.00,VWS V14.01,2013-10-30 08:02:00,
2013-10-30 03:03:00,60.1,41.4,24.83,NNW,348,0.0,0.0,50,0.00,,---,0.00,VWS V14.01,2013-10-30 08:03:00,
2013-10-30 03:04:00,60.1,41.4,24.83,NNW,348,0.0,0.0,50,0.00,,---,0.00,VWS V14.01,2013-10-30 08:04:00,
2013-10-30 03:06:00,59.7,41.6,24.83,NNW,348,0.0,0.0,51,0.00,,---,0.00,VWS V14.01,2013-10-30 08:06:00,
2013-10-30 03:07:00,59.7,41.6,24.83,NNW,348,0.0,0.0,51,0.00,,---,0.00,VWS V14.01,2013-10-30 08:07:00,
2013-10-30 03:08:00,59.5,41.4,24.83,NNW,348,0.0,0.0,51,0.00,,---,0.00,VWS V14.01,2013-10-30 08:08:00,
2013-10-30 03:10:00,59.5,41.4,24.83,NNW,348,0.0,0.0,51,0.00,,---,0.00,VWS V14.01,2013-10-30 08:10:00,
2013-10-30 03:11:00,59.5,41.4,24.83,NNW,348,0.0,0.0,51,0.00,,---,0.00,VWS V14.01,2013-10-30 08:11:00,
2013-10-30 03:12:00,59.5,41.4,24.83,NNW,348,0.0,0.0,51,0.00,,---,0.00,VWS V14.01,2013-10-30 08:12:00,
2013-10-30 03:13:00,59.5,41.4,24.83,NNE,14,0.0,0.0,51,0.00,,---,0.00,VWS V14.01,2013-10-30 08:13:00,
2013-10-30 03:15:00,59.5,41.4,24.83,NNE,14,0.0,0.0,51,0.00,,---,0.00,VWS V14.01,2013-10-30 08:15:00,
2013-10-30 03:16:00,59.4,41.8,24.83,NNE,14,0.0,0.0,52,0.00,,---,0.00,VWS V14.01,2013-10-30 08:16:00,
2013-10-30 03:17:00,59.4,41.8,24.83,NNE,14,0.0,0.0,52,0.00,,---,0.00,VWS V14.01,2013-10-30 08:17:00,
2013-10-30 03:18:00,59.4,41.8,24.83,NNE,14,0.0,0.0,52,0.00,,---,0.00,VWS V14.01,2013-10-30 08:18:00,
2013-10-30 03:20:00,59.5,42.4,24.83,North,353,0.0,0.0,53,0.00,,---,0.00,VWS V14.01,2013-10-30 08:20:00,
2013-10-30 03:22:00,59.5,42.4,24.83,North,353,0.0,0.0,53,0.00,,---,0.00,VWS V14.01,2013-10-30 08:22:00,
2013-10-30 03:23:00,59.5,42.9,24.83,North,353,0.0,0.0,54,0.00,,---,0.00,VWS V14.01,2013-10-30 08:23:00,
2013-10-30 03:25:00,59.5,42.9,24.83,NE,42,0.0,0.0,54,0.00,,---,0.00,VWS V14.01,2013-10-30 08:25:00,
2013-10-30 03:27:00,59.5,42.9,24.83,NE,42,0.0,0.0,54,0.00,,---,0.00,VWS V14.01,2013-10-30 08:27:00,
2013-10-30 03:28:00,59.5,42.9,24.83,ENE,61,0.0,0.0,54,0.00,,---,0.00,VWS V14.01,2013-10-30 08:28:00,
2013-10-30 03:29:00,59.5,42.9,24.83,ENE,61,0.0,0.0,54,0.00,,---,0.00,VWS V14.01,2013-10-30 08:29:00,
2013-10-30 03:30:00,59.5,42.9,24.83,ENE,61,0.0,0.0,54,0.00,,---,0.00,VWS V14.01,2013-10-30 08:30:00,
2013-10-30 03:32:00,59.5,42.9,24.83,ENE,61,0.0,0.0,54,0.00,,---,0.00,VWS V14.01,2013-10-30 08:32:00,
2013-10-30 03:33:00,59.5,42.9,24.83,ENE,61,0.0,0.0,54,0.00,,---,0.00,VWS V14.01,2013-10-30 08:33:00,
2013-10-30 03:34:00,59.5,42.9,24.83,NE,45,0.0,0.0,54,0.00,,---,0.00,VWS V14.01,2013-10-30 08:34:00,
2013-10-30 03:35:00,59.5,42.9,24.83,NE,45,0.0,0.0,54,0.00,,---,0.00,VWS V14.01,2013-10-30 08:35:00,
2013-10-30 03:37:00,59.5,42.9,24.83,NE,45,0.0,0.0,54,0.00,,---,0.00,VWS V14.01,2013-10-30 08:37:00,
2013-10-30 03:38:00,59.5,42.9,24.83,NE,45,0.0,0.0,54,0.00,,---,0.00,VWS V14.01,2013-10-30 08:38:00,
2013-10-30 03:39:00,59.5,42.9,24.83,NE,45,0.0,0.0,54,0.00,,---,0.00,VWS V14.01,2013-10-30 08:39:00,
2013-10-30 03:40:00,59.5,42.9,24.83,NE,45,0.0,0.0,54,0.00,,---,0.00,VWS V14.01,2013-10-30 08:40:00,
2013-10-30 03:42:00,59.5,42.9,24.83,NE,45,0.0,0.0,54,0.00,,---,0.00,VWS V14.01,2013-10-30 08:42:00,
2013-10-30 03:43:00,59.5,42.9,24.83,NE,42,0.0,0.0,54,0.00,,---,0.00,VWS V14.01,2013-10-30 08:43:00,
2013-10-30 03:44:00,59.5,42.9,24.83,NE,42,0.0,0.0,54,0.00,,---,0.00,VWS V14.01,2013-10-30 08:44:00,
2013-10-30 03:45:00,59.5,42.9,24.83,NE,42,0.0,0.0,54,0.00,,---,0.00,VWS V14.01,2013-10-30 08:45:00,
2013-10-30 03:47:00,59.5,42.9,24.83,NE,42,0.0,0.0,54,0.00,,---,0.00,VWS V14.01,2013-10-30 08:47:00,
2013-10-30 03:49:00,59.5,42.9,24.83,NE,42,0.0,0.0,54,0.00,,---,0.00,VWS V14.01,2013-10-30 08:49:00,
2013-10-30 03:50:00,59.5,42.9,24.83,NE,42,0.0,0.0,54,0.00,,---,0.00,VWS V14.01,2013-10-30 08:50:00,
2013-10-30 03:51:00,59.5,42.9,24.83,NE,42,0.0,0.0,54,0.00,,---,0.00,VWS V14.01,2013-10-30 08:51:00,
2013-10-30 03:52:00,59.5,42.9,24.83,NE,42,0.0,0.0,54,0.00,,---,0.00,VWS V14.01,2013-10-30 08:52:00,
2013-10-30 03:54:00,59.5,42.9,24.83,East,94,0.0,0.0,54,0.00,,---,0.00,VWS V14.01,2013-10-30 08:54:00,
2013-10-30 03:55:00,59.5,42.9,24.83,East,94,0.0,0.0,54,0.00,,---,0.00,VWS V14.01,2013-10-30 08:55:00,
2013-10-30 03:56:00,59.5,42.9,24.83,East,94,0.0,0.0,54,0.00,,---,0.00,VWS V14.01,2013-10-30 08:56:00,
2013-10-30 03:57:00,59.5,42.9,24.83,East,84,0.0,0.0,54,0.00,,---,0.00,VWS V14.01,2013-10-30 08:57:00,
2013-10-30 03:59:00,59.5,42.9,24.83,East,84,0.0,0.0,54,0.00,,---,0.00,VWS V14.01,2013-10-30 08:59:00,
2013-10-30 04:00:00,59.0,43.3,24.83,East,84,0.0,0.0,56,0.00,,---,0.00,VWS V14.01,2013-10-30 09:00:00,
2013-10-30 04:01:00,58.8,43.2,24.83,East,84,0.0,0.0,56,0.00,,---,0.00,VWS V14.01,2013-10-30 09:01:00,
2013-10-30 04:02:00,58.8,43.2,24.83,East,84,0.0,0.0,56,0.00,,---,0.00,VWS V14.01,2013-10-30 09:02:00,
2013-10-30 04:04:00,58.8,43.2,24.83,East,84,0.0,0.0,56,0.00,,---,0.00,VWS V14.01,2013-10-30 09:04:00,
2013-10-30 04:05:00,58.8,43.2,24.83,East,84,0.0,0.0,56,0.00,,---,0.00,VWS V14.01,2013-10-30 09:05:00,
2013-10-30 04:06:00,58.8,43.2,24.83,East,84,0.0,0.0,56,0.00,,---,0.00,VWS V14.01,2013-10-30 09:06:00,
2013-10-30 04:07:00,58.8,43.2,24.83,East,84,0.0,0.0,56,0.00,,---,0.00,VWS V14.01,2013-10-30 09:07:00,
2013-10-30 04:08:00,58.8,43.2,24.83,East,84,0.0,0.0,56,0.00,,---,0.00,VWS V14.01,2013-10-30 09:08:00,
2013-10-30 04:09:00,58.8,43.2,24.83,East,84,0.0,0.0,56,0.00,,---,0.00,VWS V14.01,2013-10-30 09:09:00,
2013-10-30 04:10:00,58.8,43.2,24.83,East,84,0.0,0.0,56,0.00,,---,0.00,VWS V14.01,2013-10-30 09:10:00,
2013-10-30 04:11:00,58.8,43.2,24.83,East,84,0.0,0.0,56,0.00,,---,0.00,VWS V14.01,2013-10-30 09:11:00,
2013-10-30 04:13:00,58.8,43.2,24.83,East,84,0.0,0.0,56,0.00,,---,0.00,VWS V14.01,2013-10-30 09:13:00,
2013-10-30 04:14:00,58.8,43.2,24.83,East,84,0.0,0.0,56,0.00,,---,0.00,VWS V14.01,2013-10-30 09:14:00,
2013-10-30 04:15:00,58.8,43.2,24.83,East,84,0.0,0.0,56,0.00,,---,0.00,VWS V14.01,2013-10-30 09:15:00,
2013-10-30 04:16:00,58.8,43.2,24.83,East,84,0.0,0.0,56,0.00,,---,0.00,VWS V14.01,2013-10-30 09:16:00,
2013-10-30 04:17:00,58.8,44.1,24.83,East,84,0.0,0.0,58,0.00,,---,0.00,VWS V14.01,2013-10-30 09:17:00,
2013-10-30 04:18:00,58.8,44.1,24.83,East,84,0.0,0.0,58,0.00,,---,0.00,VWS V14.01,2013-10-30 09:18:00,
2013-10-30 04:20:00,58.8,44.1,24.83,East,84,0.0,0.0,58,0.00,,---,0.00,VWS V14.01,2013-10-30 09:20:00,
2013-10-30 04:21:00,58.8,44.1,24.83,ENE,74,0.0,0.0,58,0.00,,---,0.00,VWS V14.01,2013-10-30 09:21:00,
2013-10-30 04:22:00,58.8,44.1,24.83,ENE,75,0.0,0.0,58,0.00,,---,0.00,VWS V14.01,2013-10-30 09:22:00,
2013-10-30 04:23:00,58.8,44.1,24.83,ENE,75,0.0,0.0,58,0.00,,---,0.00,VWS V14.01,2013-10-30 09:23:00,
2013-10-30 04:25:00,58.8,44.1,24.83,ENE,75,0.0,0.0,58,0.00,,---,0.00,VWS V14.01,2013-10-30 09:25:00,
2013-10-30 04:26:00,58.8,44.1,24.83,ENE,75,0.0,0.0,58,0.00,,---,0.00,VWS V14.01,2013-10-30 09:26:00,
2013-10-30 04:27:00,58.8,44.1,24.83,ENE,75,0.0,0.0,58,0.00,,---,0.00,VWS V14.01,2013-10-30 09:27:00,
2013-10-30 04:28:00,58.8,44.1,24.83,ENE,75,0.0,0.0,58,0.00,,---,0.00,VWS V14.01,2013-10-30 09:28:00,
2013-10-30 04:30:00,58.8,44.1,24.83,ENE,72,0.0,0.0,58,0.00,,---,0.00,VWS V14.01,2013-10-30 09:30:00,
2013-10-30 04:31:00,58.8,44.1,24.83,ENE,72,0.0,0.0,58,0.00,,---,0.00,VWS V14.01,2013-10-30 09:31:00,
2013-10-30 04:32:00,58.8,44.1,24.83,ENE,72,0.0,0.0,58,0.00,,---,0.00,VWS V14.01,2013-10-30 09:32:00,
2013-10-30 04:33:00,58.8,44.1,24.83,ENE,72,0.0,0.0,58,0.00,,---,0.00,VWS V14.01,2013-10-30 09:33:00,
2013-10-30 04:35:00,58.8,44.1,24.83,ENE,72,0.0,0.0,58,0.00,,---,0.00,VWS V14.01,2013-10-30 09:35:00,
2013-10-30 04:36:00,58.8,44.1,24.83,ENE,72,0.0,0.0,58,0.00,,---,0.00,VWS V14.01,2013-10-30 09:36:00,
2013-10-30 04:37:00,58.8,44.1,24.83,ENE,72,0.0,0.0,58,0.00,,---,0.00,VWS V14.01,2013-10-30 09:37:00,
2013-10-30 04:38:00,58.8,44.1,24.83,ENE,72,0.0,0.0,58,0.00,,---,0.00,VWS V14.01,2013-10-30 09:38:00,
2013-10-30 04:41:00,58.8,44.1,24.83,ENE,71,0.0,0.0,58,0.00,,---,0.00,VWS V14.01,2013-10-30 09:41:00,
2013-10-30 04:42:00,58.8,44.1,24.83,ENE,71,0.0,0.0,58,0.00,,---,0.00,VWS V14.01,2013-10-30 09:42:00,
2013-10-30 04:43:00,58.8,44.1,24.83,ENE,71,0.0,0.0,58,0.00,,---,0.00,VWS V14.01,2013-10-30 09:43:00,
2013-10-30 04:44:00,58.8,44.1,24.83,ENE,71,0.0,0.0,58,0.00,,---,0.00,VWS V14.01,2013-10-30 09:44:00,
2013-10-30 04:46:00,58.8,44.1,24.83,ENE,69,0.0,0.0,58,0.00,,---,0.00,VWS V14.01,2013-10-30 09:46:00,
2013-10-30 04:47:00,58.8,44.1,24.83,ENE,69,0.0,0.0,58,0.00,,---,0.00,VWS V14.01,2013-10-30 09:47:00,
2013-10-30 04:48:00,58.8,44.1,24.83,ENE,69,0.0,0.0,58,0.00,,---,0.00,VWS V14.01,2013-10-30 09:48:00,
2013-10-30 04:49:00,58.8,44.1,24.83,ENE,69,0.0,0.0,58,0.00,,---,0.00,VWS V14.01,2013-10-30 09:49:00,
2013-10-30 04:51:00,58.8,44.1,24.83,ENE,69,0.0,0.0,58,0.00,,---,0.00,VWS V14.01,2013-10-30 09:51:00,
2013-10-30 04:52:00,59.2,44.0,24.83,ENE,69,0.0,0.0,57,0.00,,---,0.00,VWS V14.01,2013-10-30 09:52:00,
2013-10-30 04:53:00,59.2,44.0,24.83,ENE,69,0.0,0.0,57,0.00,,---,0.00,VWS V14.01,2013-10-30 09:53:00,
2013-10-30 04:54:00,59.2,44.0,24.83,ENE,69,0.0,0.0,57,0.00,,---,0.00,VWS V14.01,2013-10-30 09:54:00,
2013-10-30 04:56:00,59.2,44.0,24.83,NNW,342,4.0,4.0,57,0.00,,---,0.00,VWS V14.01,2013-10-30 09:56:00,
2013-10-30 04:58:00,59.2,44.0,24.83,NNW,342,4.0,4.0,57,0.00,,---,0.00,VWS V14.01,2013-10-30 09:58:00,
2013-10-30 04:59:00,59.2,44.0,24.83,NNW,342,4.0,4.0,57,0.00,,---,0.00,VWS V14.01,2013-10-30 09:59:00,
2013-10-30 05:02:00,59.2,44.0,24.83,NNW,343,0.0,0.0,57,0.00,,---,0.00,VWS V14.01,2013-10-30 10:02:00,
2013-10-30 05:03:00,59.2,44.0,24.83,NNW,343,0.0,0.0,57,0.00,,---,0.00,VWS V14.01,2013-10-30 10:03:00,
2013-10-30 05:04:00,59.2,44.0,24.83,NNW,343,0.0,0.0,57,0.00,,---,0.00,VWS V14.01,2013-10-30 10:04:00,
2013-10-30 05:07:00,59.2,44.0,24.83,NNW,343,0.0,0.0,57,0.00,,---,0.00,VWS V14.01,2013-10-30 10:07:00,
2013-10-30 05:08:00,59.2,44.0,24.83,NNW,343,0.0,0.0,57,0.00,,---,0.00,VWS V14.01,2013-10-30 10:08:00,
2013-10-30 05:09:00,59.2,44.0,24.83,NNW,343,0.0,0.0,57,0.00,,---,0.00,VWS V14.01,2013-10-30 10:09:00,
2013-10-30 05:13:00,59.2,44.0,24.83,NNW,343,0.0,0.0,57,0.00,,---,0.00,VWS V14.01,2013-10-30 10:13:00,
2013-10-30 05:14:00,59.2,44.0,24.83,NNW,343,0.0,0.0,57,0.00,,---,0.00,VWS V14.01,2013-10-30 10:14:00,
2013-10-30 05:18:00,59.2,44.0,24.83,NNW,343,0.0,0.0,57,0.00,,---,0.00,VWS V14.01,2013-10-30 10:18:00,
2013-10-30 05:19:00,59.2,44.0,24.83,NNW,343,0.0,0.0,57,0.00,,---,0.00,VWS V14.01,2013-10-30 10:19:00,
2013-10-30 05:23:00,59.2,44.0,24.83,NNW,342,0.0,0.0,57,0.00,,---,0.00,VWS V14.01,2013-10-30 10:23:00,
2013-10-30 05:24:00,59.2,44.0,24.83,NNW,342,0.0,0.0,57,0.00,,---,0.00,VWS V14.01,2013-10-30 10:24:00,
2013-10-30 05:25:00,59.2,44.0,24.83,NNW,342,0.0,0.0,57,0.00,,---,0.00,VWS V14.01,2013-10-30 10:25:00,
2013-10-30 05:29:00,59.2,44.0,24.83,NNW,342,0.0,0.0,57,0.00,,---,0.00,VWS V14.01,2013-10-30 10:29:00,
2013-10-30 05:30:00,59.2,44.0,24.83,NNW,342,0.0,0.0,57,0.00,,---,0.00,VWS V14.01,2013-10-30 10:30:00,
2013-10-30 05:34:00,59.2,44.0,24.83,NNW,342,0.0,0.0,57,0.00,,---,0.00,VWS V14.01,2013-10-30 10:34:00,
2013-10-30 05:35:00,59.2,44.0,24.83,NNW,342,0.0,0.0,57,0.00,,---,0.00,VWS V14.01,2013-10-30 10:35:00,
2013-10-30 05:39:00,58.3,42.7,24.83,NNW,342,0.0,0.0,56,0.00,,---,0.00,VWS V14.01,2013-10-30 10:39:00,
2013-10-30 05:40:00,58.3,42.7,24.83,NNW,342,0.0,0.0,56,0.00,,---,0.00,VWS V14.01,2013-10-30 10:40:00,
2013-10-30 05:44:00,58.3,41.7,24.83,NNW,342,0.0,0.0,54,0.00,,---,0.00,VWS V14.01,2013-10-30 10:44:00,
2013-10-30 05:45:00,58.3,41.7,24.83,NNW,342,0.0,0.0,54,0.00,,---,0.00,VWS V14.01,2013-10-30 10:45:00,
2013-10-30 05:46:00,58.3,41.7,24.83,NNW,342,0.0,0.0,54,0.00,,---,0.00,VWS V14.01,2013-10-30 10:46:00,
2013-10-30 05:49:00,58.3,41.7,24.83,NNW,342,0.0,0.0,54,0.00,,---,0.00,VWS V14.01,2013-10-30 10:49:00,
2013-10-30 05:50:00,58.3,41.7,24.83,NNW,342,0.0,0.0,54,0.00,,---,0.00,VWS V14.01,2013-10-30 10:50:00,
2013-10-30 05:51:00,58.3,41.7,24.83,NNW,342,0.0,0.0,54,0.00,,---,0.00,VWS V14.01,2013-10-30 10:51:00,
2013-10-30 05:54:00,58.3,41.7,24.83,NNW,342,0.0,0.0,54,0.00,,---,0.00,VWS V14.01,2013-10-30 10:54:00,
2013-10-30 05:55:00,58.3,41.7,24.83,NNW,342,0.0,0.0,54,0.00,,---,0.00,VWS V14.01,2013-10-30 10:55:00,
2013-10-30 05:56:00,58.3,41.7,24.83,NNW,343,0.0,0.0,54,0.00,,---,0.00,VWS V14.01,2013-10-30 10:56:00,
2013-10-30 05:59:00,58.3,41.7,24.83,NNW,343,0.0,0.0,54,0.00,,---,0.00,VWS V14.01,2013-10-30 10:59:00,
2013-10-30 06:00:00,58.3,41.7,24.83,NNW,343,0.0,0.0,54,0.00,,---,0.00,VWS V14.01,2013-10-30 11:00:00,
2013-10-30 06:01:00,58.3,41.7,24.83,NNW,343,0.0,0.0,54,0.00,,---,0.00,VWS V14.01,2013-10-30 11:01:00,
2013-10-30 06:04:00,58.8,32.6,24.83,WSW,243,4.0,4.0,37,0.00,,---,0.00,VWS V14.01,2013-10-30 11:04:00,
2013-10-30 06:05:00,58.8,32.6,24.83,WSW,243,4.0,4.0,37,0.00,,---,0.00,VWS V14.01,2013-10-30 11:05:00,
2013-10-30 06:06:00,58.8,32.6,24.83,SW,229,7.2,8.1,37,0.00,,---,0.00,VWS V14.01,2013-10-30 11:06:00,
2013-10-30 06:07:00,58.8,32.6,24.83,West,267,7.6,7.6,37,0.00,,---,0.00,VWS V14.01,2013-10-30 11:07:00,
2013-10-30 06:10:00,59.4,31.0,24.83,SW,234,8.7,8.7,34,0.00,,---,0.00,VWS V14.01,2013-10-30 11:10:00,
2013-10-30 06:11:00,59.4,31.0,24.83,West,265,7.6,8.7,34,0.00,,---,0.00,VWS V14.01,2013-10-30 11:11:00,
2013-10-30 06:12:00,60.1,31.6,24.83,West,265,7.6,8.7,34,0.00,,---,0.00,VWS V14.01,2013-10-30 11:12:00,
2013-10-30 06:15:00,60.6,29.0,24.83,WSW,239,7.2,7.2,30,0.00,,---,0.00,VWS V14.01,2013-10-30 11:15:00,
2013-10-30 06:16:00,60.6,29.0,24.83,WSW,247,5.8,5.8,30,0.00,,---,0.00,VWS V14.01,2013-10-30 11:16:00,
2013-10-30 06:17:00,60.6,29.0,24.83,West,268,4.9,5.8,30,0.00,,---,0.00,VWS V14.01,2013-10-30 11:17:00,
2013-10-30 06:20:00,60.6,29.0,24.83,NW,322,4.9,4.9,30,0.00,,---,0.00,VWS V14.01,2013-10-30 11:20:00,
2013-10-30 06:21:00,60.6,29.0,24.83,NNW,337,3.1,4.9,30,0.00,,---,0.00,VWS V14.01,2013-10-30 11:21:00,
2013-10-30 06:22:00,60.6,29.0,24.83,NNW,337,3.1,4.9,30,0.00,,---,0.00,VWS V14.01,2013-10-30 11:22:00,
2013-10-30 06:25:00,60.6,29.0,24.83,North,3,0.0,0.0,30,0.00,,---,0.00,VWS V14.01,2013-10-30 11:25:00,
2013-10-30 06:26:00,60.6,29.0,24.83,North,3,0.0,0.0,30,0.00,,---,0.00,VWS V14.01,2013-10-30 11:26:00,
2013-10-30 06:27:00,61.3,27.1,24.83,North,3,0.0,0.0,27,0.00,,---,0.00,VWS V14.01,2013-10-30 11:27:00,
2013-10-30 06:30:00,61.3,27.1,24.83,North,0,2.2,2.2,27,0.00,,---,0.00,VWS V14.01,2013-10-30 11:30:00,
2013-10-30 06:31:00,61.3,27.1,24.83,NNW,328,4.0,4.0,27,0.00,,---,0.00,VWS V14.01,2013-10-30 11:31:00,
2013-10-30 06:32:00,61.3,27.1,24.83,NNW,332,4.9,4.9,27,0.00,,---,0.00,VWS V14.01,2013-10-30 11:32:00,
2013-10-30 06:35:00,60.8,25.7,24.83,NNW,333,5.4,5.4,26,0.00,,---,0.00,VWS V14.01,2013-10-30 11:35:00,
2013-10-30 06:36:00,60.8,25.7,24.83,NW,325,4.0,4.0,26,0.00,,---,0.00,VWS V14.01,2013-10-30 11:36:00,
2013-10-30 06:37:00,60.8,25.7,24.83,NW,325,4.0,4.0,26,0.00,,---,0.00,VWS V14.01,2013-10-30 11:37:00,
2013-10-30 06:38:00,60.8,25.7,24.83,NW,325,4.0,4.0,26,0.00,,---,0.00,VWS V14.01,2013-10-30 11:38:00,
2013-10-30 06:40:00,60.8,25.7,24.83,NW,326,4.0,4.9,26,0.00,,---,0.00,VWS V14.01,2013-10-30 11:40:00,
2013-10-30 06:41:00,60.8,25.7,24.83,NNW,329,6.3,6.3,26,0.00,,---,0.00,VWS V14.01,2013-10-30 11:41:00,
2013-10-30 06:42:00,60.8,25.7,24.83,NNW,329,6.3,6.3,26,0.00,,---,0.00,VWS V14.01,2013-10-30 11:42:00,
2013-10-30 06:43:00,60.8,25.7,24.83,NNW,329,6.3,6.3,26,0.00,,---,0.00,VWS V14.01,2013-10-30 11:43:00,
2013-10-30 06:45:00,60.8,25.7,24.83,NW,318,4.0,4.5,26,0.00,,---,0.00,VWS V14.01,2013-10-30 11:45:00,
2013-10-30 06:46:00,60.8,25.7,24.83,NW,318,4.0,4.5,26,0.00,,---,0.00,VWS V14.01,2013-10-30 11:46:00,
2013-10-30 06:47:00,60.8,25.7,24.83,NNW,332,3.1,4.0,26,0.00,,---,0.00,VWS V14.01,2013-10-30 11:47:00,
2013-10-30 06:48:00,60.8,25.7,24.83,NNW,332,3.1,4.0,26,0.00,,---,0.00,VWS V14.01,2013-10-30 11:48:00,
2013-10-30 06:51:00,60.8,25.7,24.83,NW,326,3.1,3.1,26,0.00,,---,0.00,VWS V14.01,2013-10-30 11:51:00,
2013-10-30 06:52:00,60.6,25.6,24.83,NW,326,3.1,3.1,26,0.00,,---,0.00,VWS V14.01,2013-10-30 11:52:00,
2013-10-30 06:53:00,60.6,25.6,24.83,NNW,329,2.7,2.7,26,0.00,,---,0.00,VWS V14.01,2013-10-30 11:53:00,
2013-10-30 06:54:00,60.6,25.6,24.83,NNW,329,2.7,2.7,26,0.00,,---,0.00,VWS V14.01,2013-10-30 11:54:00,
2013-10-30 06:55:00,60.6,25.6,24.83,NNW,328,6.3,6.3,26,0.00,,---,0.00,VWS V14.01,2013-10-30 11:55:00,
2013-10-30 06:56:00,60.6,25.6,24.83,NNW,328,6.3,6.3,26,0.00,,---,0.00,VWS V14.01,2013-10-30 11:56:00,
2013-10-30 06:57:00,60.6,25.6,24.83,NNW,328,6.3,6.3,26,0.00,,---,0.00,VWS V14.01,2013-10-30 11:57:00,
2013-10-30 06:58:00,60.6,24.6,24.83,NNW,328,4.0,4.0,25,0.00,,---,0.00,VWS V14.01,2013-10-30 11:58:00,
2013-10-30 06:59:00,60.6,24.6,24.83,NW,321,3.6,4.0,25,0.00,,---,0.00,VWS V14.01,2013-10-30 11:59:00,
2013-10-30 07:01:00,60.6,24.6,24.83,NW,321,3.6,3.6,25,0.00,,---,0.00,VWS V14.01,2013-10-30 12:01:00,
2013-10-30 07:02:00,60.6,24.6,24.83,NW,323,5.4,5.4,25,0.00,,---,0.00,VWS V14.01,2013-10-30 12:02:00,
2013-10-30 07:03:00,60.6,24.6,24.83,NW,319,4.0,5.4,25,0.00,,---,0.00,VWS V14.01,2013-10-30 12:03:00,
2013-10-30 07:04:00,60.6,24.6,24.83,NW,319,4.0,5.4,25,0.00,,---,0.00,VWS V14.01,2013-10-30 12:04:00,
2013-10-30 07:06:00,60.6,24.6,24.83,NW,314,3.1,3.1,25,0.00,,---,0.00,VWS V14.01,2013-10-30 12:06:00,
2013-10-30 07:07:00,60.6,24.6,24.83,NW,313,3.6,3.6,25,0.00,,---,0.00,VWS V14.01,2013-10-30 12:07:00,
2013-10-30 07:09:00,60.6,24.6,24.83,NNW,334,6.7,6.7,25,0.00,,---,0.00,VWS V14.01,2013-10-30 12:09:00,
2013-10-30 07:11:00,60.6,24.6,24.83,NNW,334,6.7,6.7,25,0.00,,---,0.00,VWS V14.01,2013-10-30 12:11:00,
2013-10-30 07:12:00,60.6,24.6,24.83,NW,310,6.3,6.7,25,0.00,,---,0.00,VWS V14.01,2013-10-30 12:12:00,
2013-10-30 07:14:00,60.6,24.6,24.83,NNW,343,5.8,5.8,25,0.00,,---,0.00,VWS V14.01,2013-10-30 12:14:00,
2013-10-30 07:16:00,60.6,24.6,24.83,NNW,327,4.0,4.0,25,0.00,,---,0.00,VWS V14.01,2013-10-30 12:16:00,
2013-10-30 07:17:00,60.6,24.6,24.83,NW,308,4.9,4.9,25,0.00,,---,0.00,VWS V14.01,2013-10-30 12:17:00,
2013-10-30 07:19:00,60.6,24.6,24.83,NNW,332,5.4,5.4,25,0.00,,---,0.00,VWS V14.01,2013-10-30 12:19:00,
2013-10-30 07:20:00,60.6,24.6,24.83,NNW,332,5.4,5.4,25,0.00,,---,0.00,VWS V14.01,2013-10-30 12:20:00,
2013-10-30 07:21:00,60.6,24.6,24.83,West,266,3.1,3.1,25,0.00,,---,0.00,VWS V14.01,2013-10-30 12:21:00,
2013-10-30 07:22:00,60.6,24.6,24.83,West,281,4.5,4.5,25,0.00,,---,0.00,VWS V14.01,2013-10-30 12:22:00,
2013-10-30 07:24:00,60.6,24.6,24.83,WSW,249,8.1,8.1,25,0.00,,---,0.00,VWS V14.01,2013-10-30 12:24:00,
2013-10-30 07:25:00,60.6,24.6,24.83,WSW,249,8.1,8.1,25,0.00,,---,0.00,VWS V14.01,2013-10-30 12:25:00,
2013-10-30 07:26:00,60.6,24.6,24.83,WSW,246,7.6,7.6,25,0.00,,---,0.00,VWS V14.01,2013-10-30 12:26:00,
2013-10-30 07:27:00,60.6,24.6,24.83,WSW,246,7.6,7.6,25,0.00,,---,0.00,VWS V14.01,2013-10-30 12:27:00,
2013-10-30 07:29:00,61.7,24.6,24.83,WSW,251,5.8,5.8,24,0.00,,---,0.00,VWS V14.01,2013-10-30 12:29:00,
2013-10-30 07:30:00,61.7,24.6,24.83,WSW,257,6.3,6.3,24,0.00,,---,0.00,VWS V14.01,2013-10-30 12:30:00,
2013-10-30 07:31:00,61.7,24.6,24.83,WNW,284,5.8,5.8,24,0.00,,---,0.00,VWS V14.01,2013-10-30 12:31:00,
2013-10-30 07:32:00,61.7,24.6,24.83,West,276,6.3,6.3,24,0.00,,---,0.00,VWS V14.01,2013-10-30 12:32:00,
2013-10-30 07:35:00,61.7,24.6,24.83,NW,324,10.1,10.1,24,0.00,,---,0.00,VWS V14.01,2013-10-30 12:35:00,
2013-10-30 07:36:00,61.7,24.6,24.83,North,5,2.7,10.1,24,0.00,,---,0.00,VWS V14.01,2013-10-30 12:36:00,
2013-10-30 07:37:00,61.7,24.6,24.83,North,5,0.0,0.0,24,0.00,,---,0.00,VWS V14.01,2013-10-30 12:37:00,
2013-10-30 07:40:00,62.8,24.5,24.83,North,5,0.0,0.0,23,0.00,,---,0.00,VWS V14.01,2013-10-30 12:40:00,
2013-10-30 07:41:00,62.8,24.5,24.83,North,5,0.0,0.0,23,0.00,,---,0.00,VWS V14.01,2013-10-30 12:41:00,
2013-10-30 07:42:00,62.8,24.5,24.83,North,5,0.0,0.0,23,0.00,,---,0.00,VWS V14.01,2013-10-30 12:42:00,
2013-10-30 07:45:00,61.9,24.7,24.83,North,10,0.0,0.0,24,0.00,,---,0.00,VWS V14.01,2013-10-30 12:45:00,
2013-10-30 07:46:00,61.9,24.7,24.83,North,10,0.0,0.0,24,0.00,,---,0.00,VWS V14.01,2013-10-30 12:46:00,
2013-10-30 07:47:00,61.9,24.7,24.83,ESE,106,0.0,0.0,24,0.00,,---,0.00,VWS V14.01,2013-10-30 12:47:00,
2013-10-30 07:48:00,61.9,24.7,24.83,ESE,106,0.0,0.0,24,0.00,,---,0.00,VWS V14.01,2013-10-30 12:48:00,
2013-10-30 07:50:00,61.5,24.4,24.83,ESE,106,0.0,0.0,24,0.00,,---,0.00,VWS V14.01,2013-10-30 12:50:00,
2013-10-30 07:51:00,61.2,24.1,24.83,ESE,106,0.0,0.0,24,0.00,,---,0.00,VWS V14.01,2013-10-30 12:51:00,
2013-10-30 07:52:00,61.2,24.1,24.83,ESE,106,0.0,0.0,24,0.00,,---,0.00,VWS V14.01,2013-10-30 12:52:00,
2013-10-30 07:53:00,61.2,24.1,24.83,ESE,106,0.0,0.0,24,0.00,,---,0.00,VWS V14.01,2013-10-30 12:53:00,
2013-10-30 07:55:00,61.0,24.0,24.83,ESE,106,0.0,0.0,24,0.00,,---,0.00,VWS V14.01,2013-10-30 12:55:00,
2013-10-30 07:56:00,61.0,24.0,24.83,ESE,106,0.0,0.0,24,0.00,,---,0.00,VWS V14.01,2013-10-30 12:56:00,
2013-10-30 07:57:00,61.0,24.0,24.83,ESE,111,0.0,0.0,24,0.00,,---,0.00,VWS V14.01,2013-10-30 12:57:00,
2013-10-30 07:58:00,61.0,24.0,24.83,ESE,111,0.0,0.0,24,0.00,,---,0.00,VWS V14.01,2013-10-30 12:58:00,
2013-10-30 08:00:00,60.6,23.6,24.83,ESE,111,0.0,0.0,24,0.00,,---,0.00,VWS V14.01,2013-10-30 13:00:00,
2013-10-30 08:01:00,60.6,23.6,24.83,ESE,111,0.0,0.0,24,0.00,,---,0.00,VWS V14.01,2013-10-30 13:01:00,
2013-10-30 08:02:00,60.6,23.6,24.83,ESE,111,0.0,0.0,24,0.00,,---,0.00,VWS V14.01,2013-10-30 13:02:00,
2013-10-30 08:03:00,60.6,23.6,24.83,ESE,111,0.0,0.0,24,0.00,,---,0.00,VWS V14.01,2013-10-30 13:03:00,
2013-10-30 08:05:00,60.6,23.6,24.83,ESE,111,0.0,0.0,24,0.00,,---,0.00,VWS V14.01,2013-10-30 13:05:00,
2013-10-30 08:06:00,60.8,23.8,24.83,ESE,111,0.0,0.0,24,0.00,,---,0.00,VWS V14.01,2013-10-30 13:06:00,
2013-10-30 08:07:00,60.8,23.8,24.83,ESE,111,0.0,0.0,24,0.00,,---,0.00,VWS V14.01,2013-10-30 13:07:00,
2013-10-30 08:08:00,60.8,23.8,24.83,ESE,111,0.0,0.0,24,0.00,,---,0.00,VWS V14.01,2013-10-30 13:08:00,
2013-10-30 08:09:00,60.8,23.8,24.83,ESE,111,0.0,0.0,24,0.00,,---,0.00,VWS V14.01,2013-10-30 13:09:00,
2013-10-30 08:10:00,60.8,23.8,24.83,ESE,111,0.0,0.0,24,0.00,,---,0.00,VWS V14.01,2013-10-30 13:10:00,
2013-10-30 08:11:00,60.8,23.8,24.83,ESE,111,0.0,0.0,24,0.00,,---,0.00,VWS V14.01,2013-10-30 13:11:00,
2013-10-30 08:12:00,60.8,23.8,24.83,ESE,111,0.0,0.0,24,0.00,,---,0.00,VWS V14.01,2013-10-30 13:12:00,
2013-10-30 08:13:00,60.8,23.8,24.83,ESE,111,0.0,0.0,24,0.00,,---,0.00,VWS V14.01,2013-10-30 13:13:00,
2013-10-30 08:14:00,60.6,23.6,24.83,ESE,111,0.0,0.0,24,0.00,,---,0.00,VWS V14.01,2013-10-30 13:14:00,
2013-10-30 08:15:00,60.6,23.6,24.83,ESE,111,0.0,0.0,24,0.00,,---,0.00,VWS V14.01,2013-10-30 13:15:00,
2013-10-30 08:17:00,60.4,23.5,24.83,ESE,111,0.0,0.0,24,0.00,,---,0.00,VWS V14.01,2013-10-30 13:17:00,
2013-10-30 08:18:00,60.4,23.5,24.83,ESE,111,0.0,0.0,24,0.00,,---,0.00,VWS V14.01,2013-10-30 13:18:00,
2013-10-30 08:20:00,60.3,23.4,24.83,ESE,111,0.0,0.0,24,0.00,,---,0.00,VWS V14.01,2013-10-30 13:20:00,
2013-10-30 08:23:00,60.3,23.4,24.83,ESE,111,0.0,0.0,24,0.00,,---,0.00,VWS V14.01,2013-10-30 13:23:00,
2013-10-30 08:25:00,60.3,23.4,24.83,ESE,111,0.0,0.0,24,0.00,,---,0.00,VWS V14.01,2013-10-30 13:25:00,
2013-10-30 08:26:00,60.3,23.4,24.83,ESE,111,0.0,0.0,24,0.00,,---,0.00,VWS V14.01,2013-10-30 13:26:00,
2013-10-30 08:28:00,60.3,23.4,24.83,ESE,111,0.0,0.0,24,0.00,,---,0.00,VWS V14.01,2013-10-30 13:28:00,
2013-10-30 08:30:00,60.3,23.4,24.83,ESE,111,0.0,0.0,24,0.00,,---,0.00,VWS V14.01,2013-10-30 13:30:00,
2013-10-30 08:31:00,60.3,23.4,24.83,ESE,111,0.0,0.0,24,0.00,,---,0.00,VWS V14.01,2013-10-30 13:31:00,
2013-10-30 08:33:00,60.3,23.4,24.83,ESE,111,0.0,0.0,24,0.00,,---,0.00,VWS V14.01,2013-10-30 13:33:00,
2013-10-30 08:36:00,60.6,23.6,24.83,ESE,111,0.0,0.0,24,0.00,,---,0.00,VWS V14.01,2013-10-30 13:36:00,
2013-10-30 08:38:00,60.8,23.8,24.83,ESE,111,0.0,0.0,24,0.00,,---,0.00,VWS V14.01,2013-10-30 13:38:00,
2013-10-30 08:39:00,60.8,23.8,24.83,ESE,111,0.0,0.0,24,0.00,,---,0.00,VWS V14.01,2013-10-30 13:39:00,
2013-10-30 08:41:00,61.0,24.0,24.83,ESE,111,0.0,0.0,24,0.00,,---,0.00,VWS V14.01,2013-10-30 13:41:00,
2013-10-30 08:43:00,61.2,24.1,24.83,ESE,111,0.0,0.0,24,0.00,,---,0.00,VWS V14.01,2013-10-30 13:43:00,
2013-10-30 08:44:00,61.2,24.1,24.83,ESE,111,0.0,0.0,24,0.00,,---,0.00,VWS V14.01,2013-10-30 13:44:00,
2013-10-30 08:46:00,61.2,24.1,24.83,ESE,111,0.0,0.0,24,0.00,,---,0.00,VWS V14.01,2013-10-30 13:46:00,
2013-10-30 08:47:00,61.2,24.1,24.83,ESE,111,0.0,0.0,24,0.00,,---,0.00,VWS V14.01,2013-10-30 13:47:00,
2013-10-30 08:48:00,61.2,24.1,24.83,ESE,111,0.0,0.0,24,0.00,,---,0.00,VWS V14.01,2013-10-30 13:48:00,
2013-10-30 08:49:00,61.2,24.1,24.83,ESE,111,0.0,0.0,24,0.00,,---,0.00,VWS V14.01,2013-10-30 13:49:00,
2013-10-30 08:51:00,61.3,24.3,24.83,ESE,111,0.0,0.0,24,0.00,,---,0.00,VWS V14.01,2013-10-30 13:51:00,
2013-10-30 08:52:00,61.3,24.3,24.83,ESE,111,0.0,0.0,24,0.00,,---,0.00,VWS V14.01,2013-10-30 13:52:00,
2013-10-30 08:53:00,61.3,24.3,24.83,ESE,111,0.0,0.0,24,0.00,,---,0.00,VWS V14.01,2013-10-30 13:53:00,
2013-10-30 08:54:00,61.3,24.3,24.83,ESE,111,0.0,0.0,24,0.00,,---,0.00,VWS V14.01,2013-10-30 13:54:00,
2013-10-30 08:55:00,61.3,24.3,24.83,ESE,111,0.0,0.0,24,0.00,,---,0.00,VWS V14.01,2013-10-30 13:55:00,
2013-10-30 08:56:00,61.3,24.3,24.83,ESE,111,0.0,0.0,24,0.00,,---,0.00,VWS V14.01,2013-10-30 13:56:00,
2013-10-30 08:57:00,61.2,24.1,24.83,ESE,111,0.0,0.0,24,0.00,,---,0.00,VWS V14.01,2013-10-30 13:57:00,
2013-10-30 08:58:00,61.2,24.1,24.83,ESE,111,0.0,0.0,24,0.00,,---,0.00,VWS V14.01,2013-10-30 13:58:00,
2013-10-30 08:59:00,61.2,24.1,24.83,ESE,111,0.0,0.0,24,0.00,,---,0.00,VWS V14.01,2013-10-30 13:59:00,
2013-10-30 09:00:00,61.2,24.1,24.83,ESE,111,0.0,0.0,24,0.00,,---,0.00,VWS V14.01,2013-10-30 14:00:00,
2013-10-30 09:02:00,61.2,24.1,24.83,ESE,111,0.0,0.0,24,0.00,,---,0.00,VWS V14.01,2013-10-30 14:02:00,
2013-10-30 09:03:00,61.2,20.9,24.83,ESE,111,0.0,0.0,21,0.00,,---,0.00,VWS V14.01,2013-10-30 14:03:00,
2013-10-30 09:05:00,61.3,21.1,24.83,ESE,111,0.0,0.0,21,0.00,,---,0.00,VWS V14.01,2013-10-30 14:05:00,
2013-10-30 09:07:00,61.5,21.2,24.83,ESE,111,0.0,0.0,21,0.00,,---,0.00,VWS V14.01,2013-10-30 14:07:00,
2013-10-30 09:08:00,61.5,21.2,24.83,ESE,111,0.0,0.0,21,0.00,,---,0.00,VWS V14.01,2013-10-30 14:08:00,
2013-10-30 09:10:00,61.9,21.5,24.83,ESE,111,0.0,0.0,21,0.00,,---,0.00,VWS V14.01,2013-10-30 14:10:00,
2013-10-30 09:11:00,62.2,21.9,24.83,ESE,111,0.0,0.0,21,0.00,,---,0.00,VWS V14.01,2013-10-30 14:11:00,
2013-10-30 09:12:00,62.2,21.9,24.83,ESE,111,0.0,0.0,21,0.00,,---,0.00,VWS V14.01,2013-10-30 14:12:00,
2013-10-30 09:13:00,62.2,21.9,24.83,ESE,111,0.0,0.0,21,0.00,,---,0.00,VWS V14.01,2013-10-30 14:13:00,
2013-10-30 09:15:00,62.2,21.9,24.83,ESE,111,0.0,0.0,21,0.00,,---,0.00,VWS V14.01,2013-10-30 14:15:00,
2013-10-30 09:16:00,62.2,21.9,24.83,ESE,111,0.0,0.0,21,0.00,,---,0.00,VWS V14.01,2013-10-30 14:16:00,
2013-10-30 09:17:00,62.2,21.9,24.83,ESE,111,0.0,0.0,21,0.00,,---,0.00,VWS V14.01,2013-10-30 14:17:00,
2013-10-30 09:19:00,62.6,22.1,24.83,ESE,111,0.0,0.0,21,0.00,,---,0.00,VWS V14.01,2013-10-30 14:19:00,
2013-10-30 09:20:00,62.8,22.3,24.83,ESE,111,0.0,0.0,21,0.00,,---,0.00,VWS V14.01,2013-10-30 14:20:00,
2013-10-30 09:22:00,62.8,22.3,24.83,ESE,111,0.0,0.0,21,0.00,,---,0.00,VWS V14.01,2013-10-30 14:22:00,
2013-10-30 09:24:00,62.8,22.3,24.83,ESE,111,0.0,0.0,21,0.00,,---,0.00,VWS V14.01,2013-10-30 14:24:00,
2013-10-30 09:25:00,62.8,22.3,24.83,ESE,111,0.0,0.0,21,0.00,,---,0.00,VWS V14.01,2013-10-30 14:25:00,
2013-10-30 09:26:00,62.8,22.3,24.83,ESE,111,0.0,0.0,21,0.00,,---,0.00,VWS V14.01,2013-10-30 14:26:00,
2013-10-30 09:27:00,63.1,22.6,24.83,ESE,111,0.0,0.0,21,0.00,,---,0.00,VWS V14.01,2013-10-30 14:27:00,
2013-10-30 09:28:00,63.1,22.6,24.83,ESE,111,0.0,0.0,21,0.00,,---,0.00,VWS V14.01,2013-10-30 14:28:00,
2013-10-30 09:29:00,63.3,22.8,24.83,ESE,111,0.0,0.0,21,0.00,,---,0.00,VWS V14.01,2013-10-30 14:29:00,
2013-10-30 09:30:00,63.3,22.8,24.83,ESE,111,0.0,0.0,21,0.00,,---,0.00,VWS V14.01,2013-10-30 14:30:00,
2013-10-30 09:31:00,63.3,22.8,24.83,ESE,111,0.0,0.0,21,0.00,,---,0.00,VWS V14.01,2013-10-30 14:31:00,
2013-10-30 09:32:00,63.3,22.8,24.83,ESE,111,0.0,0.0,21,0.00,,---,0.00,VWS V14.01,2013-10-30 14:32:00,
2013-10-30 09:33:00,63.3,22.8,24.83,ESE,111,0.0,0.0,21,0.00,,---,0.00,VWS V14.01,2013-10-30 14:33:00,
2013-10-30 09:34:00,63.3,22.8,24.83,ESE,111,0.0,0.0,21,0.00,,---,0.00,VWS V14.01,2013-10-30 14:34:00,
2013-10-30 09:35:00,64.0,23.3,24.83,ESE,111,0.0,0.0,21,0.00,,---,0.00,VWS V14.01,2013-10-30 14:35:00,
2013-10-30 09:36:00,64.0,23.3,24.83,ESE,111,0.0,0.0,21,0.00,,---,0.00,VWS V14.01,2013-10-30 14:36:00,
2013-10-30 09:37:00,64.0,23.3,24.86,ESE,111,0.0,0.0,21,0.00,,---,0.00,VWS V14.01,2013-10-30 14:37:00,
2013-10-30 09:38:00,64.0,23.3,24.86,ESE,111,0.0,0.0,21,0.00,,---,0.00,VWS V14.01,2013-10-30 14:38:00,
2013-10-30 09:39:00,64.0,23.3,24.86,ESE,111,0.0,0.0,21,0.00,,---,0.00,VWS V14.01,2013-10-30 14:39:00,
2013-10-30 09:40:00,64.0,23.3,24.86,ESE,111,0.0,0.0,21,0.00,,---,0.00,VWS V14.01,2013-10-30 14:40:00,
2013-10-30 09:41:00,64.0,23.3,24.86,ESE,111,0.0,0.0,21,0.00,,---,0.00,VWS V14.01,2013-10-30 14:41:00,
2013-10-30 09:42:00,64.0,23.3,24.86,ESE,111,0.0,0.0,21,0.00,,---,0.00,VWS V14.01,2013-10-30 14:42:00,
2013-10-30 09:43:00,64.0,23.3,24.86,ESE,111,0.0,0.0,21,0.00,,---,0.00,VWS V14.01,2013-10-30 14:43:00,
2013-10-30 09:44:00,64.8,22.8,24.86,ESE,111,0.0,0.0,20,0.00,,---,0.00,VWS V14.01,2013-10-30 14:44:00,
2013-10-30 09:46:00,64.8,22.8,24.86,ESE,111,0.0,0.0,20,0.00,,---,0.00,VWS V14.01,2013-10-30 14:46:00,
2013-10-30 09:47:00,64.8,22.8,24.86,ESE,111,0.0,0.0,20,0.00,,---,0.00,VWS V14.01,2013-10-30 14:47:00,
2013-10-30 09:48:00,64.8,22.8,24.86,ESE,111,0.0,0.0,20,0.00,,---,0.00,VWS V14.01,2013-10-30 14:48:00,
2013-10-30 09:49:00,65.3,20.7,24.86,ESE,111,0.0,0.0,18,0.00,,---,0.00,VWS V14.01,2013-10-30 14:49:00,
2013-10-30 09:51:00,65.3,20.7,24.86,ESE,111,0.0,0.0,18,0.00,,---,0.00,VWS V14.01,2013-10-30 14:51:00,
2013-10-30 09:53:00,65.3,23.2,24.86,ESE,111,0.0,0.0,20,0.00,,---,0.00,VWS V14.01,2013-10-30 14:53:00,
2013-10-30 09:54:00,65.3,20.7,24.86,ESE,111,0.0,0.0,18,0.00,,---,0.00,VWS V14.01,2013-10-30 14:54:00,
2013-10-30 09:56:00,65.5,23.4,24.86,ESE,111,0.0,0.0,20,0.00,,---,0.00,VWS V14.01,2013-10-30 14:56:00,
2013-10-30 09:58:00,65.5,20.9,24.86,ESE,111,0.0,0.0,18,0.00,,---,0.00,VWS V14.01,2013-10-30 14:58:00,
2013-10-30 09:59:00,65.5,20.9,24.86,ESE,111,0.0,0.0,18,0.00,,---,0.00,VWS V14.01,2013-10-30 14:59:00,
2013-10-30 10:01:00,65.8,21.2,24.86,ESE,111,0.0,0.0,18,0.00,,---,0.00,VWS V14.01,2013-10-30 15:01:00,
2013-10-30 10:03:00,65.8,21.2,24.86,ESE,111,0.0,0.0,18,0.00,,---,0.00,VWS V14.01,2013-10-30 15:03:00,
2013-10-30 10:04:00,65.8,21.2,24.86,ESE,111,0.0,0.0,18,0.00,,---,0.00,VWS V14.01,2013-10-30 15:04:00,
2013-10-30 10:06:00,65.8,21.2,24.86,ESE,111,0.0,0.0,18,0.00,,---,0.00,VWS V14.01,2013-10-30 15:06:00,
2013-10-30 10:07:00,65.8,21.2,24.86,ESE,111,0.0,0.0,18,0.00,,---,0.00,VWS V14.01,2013-10-30 15:07:00,
2013-10-30 10:08:00,65.8,21.2,24.86,ESE,111,0.0,0.0,18,0.00,,---,0.00,VWS V14.01,2013-10-30 15:08:00,
2013-10-30 10:09:00,65.8,21.2,24.86,ESE,111,0.0,0.0,18,0.00,,---,0.00,VWS V14.01,2013-10-30 15:09:00,
2013-10-30 10:10:00,66.6,20.4,24.86,ESE,111,0.0,0.0,17,0.00,,---,0.00,VWS V14.01,2013-10-30 15:10:00,
2013-10-30 10:11:00,66.6,20.4,24.86,ESE,111,0.0,0.0,17,0.00,,---,0.00,VWS V14.01,2013-10-30 15:11:00,
2013-10-30 10:12:00,66.6,20.4,24.86,ESE,111,0.0,0.0,17,0.00,,---,0.00,VWS V14.01,2013-10-30 15:12:00,
2013-10-30 10:13:00,66.6,20.4,24.86,ESE,111,0.0,0.0,17,0.00,,---,0.00,VWS V14.01,2013-10-30 15:13:00,
2013-10-30 10:15:00,66.6,20.4,24.86,ESE,111,0.0,0.0,17,0.00,,---,0.00,VWS V14.01,2013-10-30 15:15:00,
2013-10-30 10:16:00,66.6,20.4,24.86,ESE,111,0.0,0.0,17,0.00,,---,0.00,VWS V14.01,2013-10-30 15:16:00,
2013-10-30 10:17:00,66.6,20.4,24.86,ESE,111,0.0,0.0,17,0.00,,---,0.00,VWS V14.01,2013-10-30 15:17:00,
2013-10-30 10:18:00,67.3,21.0,24.86,ESE,111,0.0,0.0,17,0.00,,---,0.00,VWS V14.01,2013-10-30 15:18:00,
2013-10-30 10:20:00,67.3,21.0,24.86,ESE,111,0.0,0.0,17,0.00,,---,0.00,VWS V14.01,2013-10-30 15:20:00,
2013-10-30 10:22:00,67.3,21.0,24.86,ESE,111,0.0,0.0,17,0.00,,---,0.00,VWS V14.01,2013-10-30 15:22:00,
2013-10-30 10:23:00,67.3,21.0,24.86,ESE,111,0.0,0.0,17,0.00,,---,0.00,VWS V14.01,2013-10-30 15:23:00,
2013-10-30 10:25:00,67.3,21.0,24.86,ESE,111,0.0,0.0,17,0.00,,---,0.00,VWS V14.01,2013-10-30 15:25:00,
2013-10-30 10:27:00,67.5,21.2,24.86,ESE,111,0.0,0.0,17,0.00,,---,0.00,VWS V14.01,2013-10-30 15:27:00,
2013-10-30 10:28:00,67.5,21.2,24.86,ESE,111,0.0,0.0,17,0.00,,---,0.00,VWS V14.01,2013-10-30 15:28:00,
2013-10-30 10:30:00,67.5,21.2,24.86,ESE,111,0.0,0.0,17,0.00,,---,0.00,VWS V14.01,2013-10-30 15:30:00,
2013-10-30 10:33:00,67.6,21.3,24.86,ESE,111,0.0,0.0,17,0.00,,---,0.00,VWS V14.01,2013-10-30 15:33:00,
2013-10-30 10:34:00,67.6,21.3,24.86,ESE,111,0.0,0.0,17,0.00,,---,0.00,VWS V14.01,2013-10-30 15:34:00,
2013-10-30 10:35:00,67.8,21.5,24.86,ESE,111,0.0,0.0,17,0.00,,---,0.00,VWS V14.01,2013-10-30 15:35:00,
2013-10-30 10:36:00,67.8,21.5,24.86,ESE,111,0.0,0.0,17,0.00,,---,0.00,VWS V14.01,2013-10-30 15:36:00,
2013-10-30 10:38:00,67.8,21.5,24.86,ESE,111,0.0,0.0,17,0.00,,---,0.00,VWS V14.01,2013-10-30 15:38:00,
2013-10-30 10:39:00,67.8,21.5,24.86,ESE,111,0.0,0.0,17,0.00,,---,0.00,VWS V14.01,2013-10-30 15:39:00,
2013-10-30 10:40:00,67.8,21.5,24.86,ESE,111,0.0,0.0,17,0.00,,---,0.00,VWS V14.01,2013-10-30 15:40:00,
2013-10-30 10:41:00,67.8,21.5,24.86,ESE,111,0.0,0.0,17,0.00,,---,0.00,VWS V14.01,2013-10-30 15:41:00,
2013-10-30 10:43:00,67.8,21.5,24.86,ESE,111,0.0,0.0,17,0.00,,---,0.00,VWS V14.01,2013-10-30 15:43:00,
2013-10-30 10:44:00,67.8,21.5,24.86,ESE,111,0.0,0.0,17,0.00,,---,0.00,VWS V14.01,2013-10-30 15:44:00,
2013-10-30 10:45:00,67.8,21.5,24.86,ESE,111,0.0,0.0,17,0.00,,---,0.00,VWS V14.01,2013-10-30 15:45:00,
2013-10-30 10:46:00,67.8,21.5,24.86,ESE,111,0.0,0.0,17,0.00,,---,0.00,VWS V14.01,2013-10-30 15:46:00,
2013-10-30 10:48:00,67.8,21.5,24.86,ESE,111,0.0,0.0,17,0.00,,---,0.00,VWS V14.01,2013-10-30 15:48:00,
2013-10-30 10:49:00,67.8,21.5,24.86,ESE,111,0.0,0.0,17,0.00,,---,0.00,VWS V14.01,2013-10-30 15:49:00,
2013-10-30 10:50:00,67.8,21.5,24.86,ESE,111,0.0,0.0,17,0.00,,---,0.00,VWS V14.01,2013-10-30 15:50:00,
2013-10-30 10:51:00,67.8,21.5,24.86,ESE,111,0.0,0.0,17,0.00,,---,0.00,VWS V14.01,2013-10-30 15:51:00,
2013-10-30 10:53:00,67.8,21.5,24.86,ESE,111,0.0,0.0,17,0.00,,---,0.00,VWS V14.01,2013-10-30 15:53:00,
2013-10-30 10:54:00,67.8,21.5,24.86,ESE,111,0.0,0.0,17,0.00,,---,0.00,VWS V14.01,2013-10-30 15:54:00,
2013-10-30 10:55:00,67.8,21.5,24.86,ESE,111,0.0,0.0,17,0.00,,---,0.00,VWS V14.01,2013-10-30 15:55:00,
2013-10-30 10:56:00,67.6,25.2,24.86,ESE,111,0.0,0.0,20,0.00,,---,0.00,VWS V14.01,2013-10-30 15:56:00,
2013-10-30 10:58:00,67.6,25.2,24.86,ESE,111,0.0,0.0,20,0.00,,---,0.00,VWS V14.01,2013-10-30 15:58:00,
2013-10-30 10:59:00,67.6,25.2,24.86,ESE,111,0.0,0.0,20,0.00,,---,0.00,VWS V14.01,2013-10-30 15:59:00,
2013-10-30 11:00:00,67.6,25.2,24.86,ESE,111,0.0,0.0,20,0.00,,---,0.00,VWS V14.01,2013-10-30 16:00:00,
2013-10-30 11:01:00,67.6,25.2,24.86,ESE,111,0.0,0.0,20,0.00,,---,0.00,VWS V14.01,2013-10-30 16:01:00,
2013-10-30 11:02:00,67.8,25.3,24.86,ESE,111,0.0,0.0,20,0.00,,---,0.00,VWS V14.01,2013-10-30 16:02:00,
2013-10-30 11:03:00,67.8,25.3,24.86,ESE,111,0.0,0.0,20,0.00,,---,0.00,VWS V14.01,2013-10-30 16:03:00,
2013-10-30 11:04:00,67.8,25.3,24.86,ESE,111,0.0,0.0,20,0.00,,---,0.00,VWS V14.01,2013-10-30 16:04:00,
2013-10-30 11:05:00,67.8,25.3,24.86,ESE,111,0.0,0.0,20,0.00,,---,0.00,VWS V14.01,2013-10-30 16:05:00,
2013-10-30 11:06:00,67.8,25.3,24.86,ESE,111,0.0,0.0,20,0.00,,---,0.00,VWS V14.01,2013-10-30 16:06:00,
2013-10-30 11:07:00,67.8,25.3,24.86,ESE,111,0.0,0.0,20,0.00,,---,0.00,VWS V14.01,2013-10-30 16:07:00,
2013-10-30 11:09:00,67.8,25.3,24.86,West,274,8.7,8.7,20,0.00,,---,0.00,VWS V14.01,2013-10-30 16:09:00,
2013-10-30 11:11:00,67.8,25.3,24.86,West,274,8.7,8.7,20,0.00,,---,0.00,VWS V14.01,2013-10-30 16:11:00,
2013-10-30 11:12:00,67.8,25.3,24.86,WNW,287,8.1,8.1,20,0.00,,---,0.00,VWS V14.01,2013-10-30 16:12:00,
2013-10-30 11:14:00,67.8,25.3,24.86,West,279,7.6,7.6,20,0.00,,---,0.00,VWS V14.01,2013-10-30 16:14:00,
2013-10-30 11:15:00,67.8,25.3,24.86,West,279,7.6,7.6,20,0.00,,---,0.00,VWS V14.01,2013-10-30 16:15:00,
2013-10-30 11:16:00,67.8,25.3,24.86,WNW,285,5.4,7.6,20,0.00,,---,0.00,VWS V14.01,2013-10-30 16:16:00,
2013-10-30 11:18:00,67.8,25.3,24.86,NW,307,8.7,8.7,20,0.00,,---,0.00,VWS V14.01,2013-10-30 16:18:00,
2013-10-30 11:19:00,67.3,24.9,24.86,NW,307,8.7,8.7,20,0.00,,---,0.00,VWS V14.01,2013-10-30 16:19:00,
2013-10-30 11:20:00,67.3,24.9,24.86,NW,307,8.7,8.7,20,0.00,,---,0.00,VWS V14.01,2013-10-30 16:20:00,
2013-10-30 11:21:00,67.3,24.9,24.86,West,263,8.7,8.7,20,0.00,,---,0.00,VWS V14.01,2013-10-30 16:21:00,
2013-10-30 11:22:00,67.3,24.9,24.86,West,263,8.7,8.7,20,0.00,,---,0.00,VWS V14.01,2013-10-30 16:22:00,
2013-10-30 11:23:00,67.3,24.9,24.86,WNW,286,5.4,8.7,20,0.00,,---,0.00,VWS V14.01,2013-10-30 16:23:00,
2013-10-30 11:24:00,67.3,24.9,24.86,WNW,286,5.4,5.4,20,0.00,,---,0.00,VWS V14.01,2013-10-30 16:24:00,
2013-10-30 11:25:00,67.3,24.9,24.86,West,260,6.7,6.7,20,0.00,,---,0.00,VWS V14.01,2013-10-30 16:25:00,
2013-10-30 11:26:00,67.3,24.9,24.86,WNW,287,6.3,6.3,20,0.00,,---,0.00,VWS V14.01,2013-10-30 16:26:00,
2013-10-30 11:27:00,67.5,25.0,24.86,WNW,287,6.3,6.3,20,0.00,,---,0.00,VWS V14.01,2013-10-30 16:27:00,
2013-10-30 11:28:00,67.5,25.0,24.86,WNW,287,6.3,6.3,20,0.00,,---,0.00,VWS V14.01,2013-10-30 16:28:00,
2013-10-30 11:29:00,67.5,25.0,24.86,WNW,289,5.8,6.3,20,0.00,,---,0.00,VWS V14.01,2013-10-30 16:29:00,
2013-10-30 11:30:00,67.5,25.0,24.86,WNW,289,5.8,6.3,20,0.00,,---,0.00,VWS V14.01,2013-10-30 16:30:00,
2013-10-30 11:31:00,67.6,25.2,24.86,WNW,289,5.8,5.8,20,0.00,,---,0.00,VWS V14.01,2013-10-30 16:31:00,
2013-10-30 11:32:00,67.6,25.2,24.86,WNW,289,5.8,5.8,20,0.00,,---,0.00,VWS V14.01,2013-10-30 16:32:00,
2013-10-30 11:33:00,67.6,25.2,24.86,West,281,8.3,8.3,20,0.00,,---,0.00,VWS V14.01,2013-10-30 16:33:00,
2013-10-30 11:34:00,67.6,25.2,24.86,West,278,7.6,7.6,20,0.00,,---,0.00,VWS V14.01,2013-10-30 16:34:00,
2013-10-30 11:35:00,67.6,25.2,24.86,West,278,7.6,7.6,20,0.00,,---,0.00,VWS V14.01,2013-10-30 16:35:00,
2013-10-30 11:37:00,67.6,25.2,24.86,West,278,7.6,7.6,20,0.00,,---,0.00,VWS V14.01,2013-10-30 16:37:00,
2013-10-30 11:38:00,67.6,25.2,24.86,West,278,7.6,7.6,20,0.00,,---,0.00,VWS V14.01,2013-10-30 16:38:00,
2013-10-30 11:39:00,67.6,25.2,24.86,West,278,7.6,7.6,20,0.00,,---,0.00,VWS V14.01,2013-10-30 16:39:00,
2013-10-30 11:40:00,67.6,25.2,24.86,West,278,7.6,7.6,20,0.00,,---,0.00,VWS V14.01,2013-10-30 16:40:00,
2013-10-30 11:42:00,67.6,25.2,24.86,WNW,283,6.3,6.3,20,0.00,,---,0.00,VWS V14.01,2013-10-30 16:42:00,
2013-10-30 11:43:00,67.6,25.2,24.86,West,268,6.3,6.3,20,0.00,,---,0.00,VWS V14.01,2013-10-30 16:43:00,
2013-10-30 11:44:00,67.3,24.9,24.86,West,268,6.3,6.3,20,0.00,,---,0.00,VWS V14.01,2013-10-30 16:44:00,
2013-10-30 11:45:00,67.3,24.9,24.86,West,268,6.3,6.3,20,0.00,,---,0.00,VWS V14.01,2013-10-30 16:45:00,
2013-10-30 11:48:00,67.3,24.9,24.86,WNW,286,11.4,11.4,20,0.00,,---,0.00,VWS V14.01,2013-10-30 16:48:00,
2013-10-30 11:49:00,67.3,24.9,24.86,WNW,286,11.4,11.4,20,0.00,,---,0.00,VWS V14.01,2013-10-30 16:49:00,
2013-10-30 11:50:00,67.3,24.9,24.86,WNW,286,11.4,11.4,20,0.00,,---,0.00,VWS V14.01,2013-10-30 16:50:00,
2013-10-30 11:53:00,67.1,24.7,24.86,WNW,302,8.3,8.3,20,0.00,,---,0.00,VWS V14.01,2013-10-30 16:53:00,
2013-10-30 11:54:00,67.1,24.7,24.86,WNW,302,8.3,8.3,20,0.00,,---,0.00,VWS V14.01,2013-10-30 16:54:00,
2013-10-30 11:55:00,67.1,24.7,24.86,WNW,302,8.3,8.3,20,0.00,,---,0.00,VWS V14.01,2013-10-30 16:55:00,
2013-10-30 11:58:00,66.9,24.6,24.86,WNW,302,8.3,8.3,20,0.00,,---,0.00,VWS V14.01,2013-10-30 16:58:00,
2013-10-30 11:59:00,66.9,24.6,24.86,WNW,302,8.3,8.3,20,0.00,,---,0.00,VWS V14.01,2013-10-30 16:59:00,
2013-10-30 12:00:00,66.9,24.6,24.86,NW,321,8.3,8.3,20,0.00,,---,0.00,VWS V14.01,2013-10-30 17:00:00,
2013-10-30 12:03:00,66.9,24.6,24.86,NW,325,5.4,5.4,20,0.00,,---,0.00,VWS V14.01,2013-10-30 17:03:00,
2013-10-30 12:04:00,66.9,24.6,24.86,WNW,297,8.1,8.1,20,0.00,,---,0.00,VWS V14.01,2013-10-30 17:04:00,
2013-10-30 12:05:00,66.9,24.6,24.86,WNW,297,8.1,8.1,20,0.00,,---,0.00,VWS V14.01,2013-10-30 17:05:00,
2013-10-30 12:08:00,67.1,24.7,24.86,WNW,297,8.1,8.1,20,0.00,,---,0.00,VWS V14.01,2013-10-30 17:08:00,
2013-10-30 12:09:00,67.1,24.7,24.86,WNW,290,8.7,8.7,20,0.00,,---,0.00,VWS V14.01,2013-10-30 17:09:00,
2013-10-30 12:10:00,67.1,24.7,24.86,WNW,290,8.7,8.7,20,0.00,,---,0.00,VWS V14.01,2013-10-30 17:10:00,
2013-10-30 12:11:00,67.1,24.7,24.86,WNW,289,8.1,8.7,20,0.00,,---,0.00,VWS V14.01,2013-10-30 17:11:00,
2013-10-30 12:13:00,67.1,24.7,24.86,WNW,289,8.1,8.1,20,0.00,,---,0.00,VWS V14.01,2013-10-30 17:13:00,
2013-10-30 12:14:00,67.1,24.7,24.86,NW,308,5.4,5.4,20,0.00,,---,0.00,VWS V14.01,2013-10-30 17:14:00,
2013-10-30 12:15:00,67.1,24.7,24.86,NW,308,5.4,5.4,20,0.00,,---,0.00,VWS V14.01,2013-10-30 17:15:00,
2013-10-30 12:16:00,67.1,24.7,24.86,NW,308,5.4,5.4,20,0.00,,---,0.00,VWS V14.01,2013-10-30 17:16:00,
2013-10-30 12:18:00,67.1,24.7,24.86,WNW,291,8.7,8.7,20,0.00,,---,0.00,VWS V14.01,2013-10-30 17:18:00,
2013-10-30 12:20:00,67.1,24.7,24.86,WNW,301,6.3,6.3,20,0.00,,---,0.00,VWS V14.01,2013-10-30 17:20:00,
2013-10-30 12:21:00,67.1,24.7,24.86,WNW,301,6.3,6.3,20,0.00,,---,0.00,VWS V14.01,2013-10-30 17:21:00,
2013-10-30 12:23:00,67.1,24.7,24.86,WNW,298,8.3,8.3,20,0.00,,---,0.00,VWS V14.01,2013-10-30 17:23:00,
2013-10-30 12:25:00,67.1,24.7,24.86,WNW,299,8.1,8.3,20,0.00,,---,0.00,VWS V14.01,2013-10-30 17:25:00,
2013-10-30 12:26:00,67.1,24.7,24.86,WNW,299,8.1,8.3,20,0.00,,---,0.00,VWS V14.01,2013-10-30 17:26:00,
2013-10-30 12:27:00,67.1,24.7,24.86,NW,304,6.3,8.1,20,0.00,,---,0.00,VWS V14.01,2013-10-30 17:27:00,
2013-10-30 12:28:00,67.1,24.7,24.86,NW,304,6.3,6.3,20,0.00,,---,0.00,VWS V14.01,2013-10-30 17:28:00,
2013-10-30 12:30:00,67.1,24.7,24.86,WNW,291,5.4,5.4,20,0.00,,---,0.00,VWS V14.01,2013-10-30 17:30:00,
2013-10-30 12:31:00,67.1,24.7,24.86,West,280,8.1,8.1,20,0.00,,---,0.00,VWS V14.01,2013-10-30 17:31:00,
2013-10-30 12:32:00,67.1,24.7,24.86,West,280,8.1,8.1,20,0.00,,---,0.00,VWS V14.01,2013-10-30 17:32:00,
2013-10-30 12:33:00,67.1,24.7,24.86,West,279,6.3,6.3,20,0.00,,---,0.00,VWS V14.01,2013-10-30 17:33:00,
2013-10-30 12:36:00,67.5,25.0,24.86,NW,316,6.3,6.3,20,0.00,,---,0.00,VWS V14.01,2013-10-30 17:36:00,
2013-10-30 12:37:00,67.5,25.0,24.86,NW,316,6.3,6.3,20,0.00,,---,0.00,VWS V14.01,2013-10-30 17:37:00,
2013-10-30 12:39:00,67.5,25.0,24.86,NW,316,6.3,6.3,20,0.00,,---,0.00,VWS V14.01,2013-10-30 17:39:00,
2013-10-30 12:41:00,67.5,25.0,24.86,WNW,286,5.8,5.8,20,0.00,,---,0.00,VWS V14.01,2013-10-30 17:41:00,
2013-10-30 12:42:00,67.5,25.0,24.86,WNW,286,5.8,5.8,20,0.00,,---,0.00,VWS V14.01,2013-10-30 17:42:00,
2013-10-30 12:44:00,67.5,25.0,24.86,West,269,6.3,6.3,20,0.00,,---,0.00,VWS V14.01,2013-10-30 17:44:00,
2013-10-30 12:46:00,68.2,25.6,24.86,NNW,334,8.7,8.7,20,0.00,,---,0.00,VWS V14.01,2013-10-30 17:46:00,
2013-10-30 12:47:00,68.2,25.6,24.86,NNW,334,8.7,8.7,20,0.00,,---,0.00,VWS V14.01,2013-10-30 17:47:00,
2013-10-30 12:49:00,68.2,25.6,24.86,WNW,289,6.3,6.3,20,0.00,,---,0.00,VWS V14.01,2013-10-30 17:49:00,
2013-10-30 12:51:00,68.2,25.6,24.86,WNW,289,6.3,6.3,20,0.00,,---,0.00,VWS V14.01,2013-10-30 17:51:00,
2013-10-30 12:52:00,68.2,25.6,24.86,West,262,6.3,6.3,20,0.00,,---,0.00,VWS V14.01,2013-10-30 17:52:00,
2013-10-30 12:54:00,68.7,26.1,24.86,West,263,7.6,7.6,20,0.00,,---,0.00,VWS V14.01,2013-10-30 17:54:00,
2013-10-30 12:56:00,68.7,26.1,24.86,West,268,5.4,5.4,20,0.00,,---,0.00,VWS V14.01,2013-10-30 17:56:00,
2013-10-30 12:57:00,68.7,26.1,24.86,West,268,5.4,5.4,20,0.00,,---,0.00,VWS V14.01,2013-10-30 17:57:00,
2013-10-30 12:59:00,68.9,26.2,24.86,West,265,3.1,3.1,20,0.00,,---,0.00,VWS V14.01,2013-10-30 17:59:00,
2013-10-30 13:02:00,68.9,26.2,24.86,West,265,3.1,3.1,20,0.00,,---,0.00,VWS V14.01,2013-10-30 18:02:00,
2013-10-30 13:03:00,69.1,26.4,24.86,West,265,3.1,3.1,20,0.00,,---,0.00,VWS V14.01,2013-10-30 18:03:00,
2013-10-30 13:04:00,69.1,26.4,24.86,West,265,3.1,3.1,20,0.00,,---,0.00,VWS V14.01,2013-10-30 18:04:00,
2013-10-30 13:07:00,69.1,26.4,24.86,WSW,243,5.8,5.8,20,0.00,,---,0.00,VWS V14.01,2013-10-30 18:07:00,
2013-10-30 13:08:00,69.1,26.4,24.86,West,264,5.8,5.8,20,0.00,,---,0.00,VWS V14.01,2013-10-30 18:08:00,
2013-10-30 13:09:00,69.1,26.4,24.86,West,264,5.8,5.8,20,0.00,,---,0.00,VWS V14.01,2013-10-30 18:09:00,
2013-10-30 13:12:00,69.1,26.4,24.86,West,274,5.4,5.8,20,0.00,,---,0.00,VWS V14.01,2013-10-30 18:12:00,
2013-10-30 13:13:00,69.1,26.4,24.86,West,274,5.4,5.4,20,0.00,,---,0.00,VWS V14.01,2013-10-30 18:13:00,
2013-10-30 13:15:00,69.1,26.4,24.86,West,274,5.4,5.4,20,0.00,,---,0.00,VWS V14.01,2013-10-30 18:15:00,
2013-10-30 13:17:00,69.3,26.5,24.86,West,274,5.4,5.4,20,0.00,,---,0.00,VWS V14.01,2013-10-30 18:17:00,
2013-10-30 13:18:00,69.3,26.5,24.86,West,274,5.4,5.4,20,0.00,,---,0.00,VWS V14.01,2013-10-30 18:18:00,
2013-10-30 13:19:00,69.3,26.5,24.86,West,274,5.4,5.4,20,0.00,,---,0.00,VWS V14.01,2013-10-30 18:19:00,
2013-10-30 13:20:00,69.3,26.5,24.86,West,274,5.4,5.4,20,0.00,,---,0.00,VWS V14.01,2013-10-30 18:20:00,
2013-10-30 13:22:00,69.3,26.5,24.86,West,274,5.4,5.4,20,0.00,,---,0.00,VWS V14.01,2013-10-30 18:22:00,
2013-10-30 13:23:00,69.3,26.5,24.86,West,274,5.4,5.4,20,0.00,,---,0.00,VWS V14.01,2013-10-30 18:23:00,
2013-10-30 13:24:00,69.3,26.5,24.86,West,274,5.4,5.4,20,0.00,,---,0.00,VWS V14.01,2013-10-30 18:24:00,
2013-10-30 13:25:00,69.3,26.5,24.86,West,274,5.4,5.4,20,0.00,,---,0.00,VWS V14.01,2013-10-30 18:25:00,
2013-10-30 13:27:00,69.1,26.4,24.86,West,274,5.4,5.4,20,0.00,,---,0.00,VWS V14.01,2013-10-30 18:27:00,
2013-10-30 13:28:00,69.1,26.4,24.86,West,274,5.4,5.4,20,0.00,,---,0.00,VWS V14.01,2013-10-30 18:28:00,
2013-10-30 13:29:00,69.1,26.4,24.86,West,274,5.4,5.4,20,0.00,,---,0.00,VWS V14.01,2013-10-30 18:29:00,
2013-10-30 13:30:00,69.1,26.4,24.86,West,274,5.4,5.4,20,0.00,,---,0.00,VWS V14.01,2013-10-30 18:30:00,
2013-10-30 13:32:00,69.1,26.4,24.86,West,274,5.4,5.4,20,0.00,,---,0.00,VWS V14.01,2013-10-30 18:32:00,
2013-10-30 13:33:00,69.1,26.4,24.86,West,274,5.4,5.4,20,0.00,,---,0.00,VWS V14.01,2013-10-30 18:33:00,
2013-10-30 13:35:00,69.1,26.4,24.86,West,274,5.4,5.4,20,0.00,,---,0.00,VWS V14.01,2013-10-30 18:35:00,
2013-10-30 13:37:00,69.4,26.7,24.86,WSW,238,5.4,5.4,20,0.00,,---,0.00,VWS V14.01,2013-10-30 18:37:00,
2013-10-30 13:38:00,69.4,26.7,24.86,WSW,249,10.5,10.5,20,0.00,,---,0.00,VWS V14.01,2013-10-30 18:38:00,
2013-10-30 13:40:00,69.8,25.7,24.86,WSW,237,7.6,7.6,19,0.00,,---,0.00,VWS V14.01,2013-10-30 18:40:00,
2013-10-30 13:41:00,69.8,25.7,24.86,WSW,237,7.6,7.6,19,0.00,,---,0.00,VWS V14.01,2013-10-30 18:41:00,
2013-10-30 13:43:00,69.8,25.7,24.86,SW,226,7.6,7.6,19,0.00,,---,0.00,VWS V14.01,2013-10-30 18:43:00,
2013-10-30 13:45:00,69.8,25.7,24.86,SW,226,7.6,7.6,19,0.00,,---,0.00,VWS V14.01,2013-10-30 18:45:00,
2013-10-30 13:46:00,69.8,25.7,24.86,SW,226,7.6,7.6,19,0.00,,---,0.00,VWS V14.01,2013-10-30 18:46:00,
2013-10-30 13:48:00,69.8,25.7,24.86,SW,226,7.6,7.6,19,0.00,,---,0.00,VWS V14.01,2013-10-30 18:48:00,
2013-10-30 13:49:00,69.8,25.7,24.86,SW,226,7.6,7.6,19,0.00,,---,0.00,VWS V14.01,2013-10-30 18:49:00,
2013-10-30 13:50:00,69.8,25.7,24.86,SW,226,7.6,7.6,19,0.00,,---,0.00,VWS V14.01,2013-10-30 18:50:00,
2013-10-30 13:51:00,69.8,25.7,24.86,SW,226,7.6,7.6,19,0.00,,---,0.00,VWS V14.01,2013-10-30 18:51:00,
2013-10-30 13:53:00,69.8,25.7,24.86,SW,226,7.6,7.6,19,0.00,,---,0.00,VWS V14.01,2013-10-30 18:53:00,
2013-10-30 13:54:00,69.8,25.7,24.86,SW,226,7.6,7.6,19,0.00,,---,0.00,VWS V14.01,2013-10-30 18:54:00,
2013-10-30 13:56:00,69.8,25.7,24.86,SW,226,7.6,7.6,19,0.00,,---,0.00,VWS V14.01,2013-10-30 18:56:00,
2013-10-30 13:57:00,69.8,25.7,24.86,SW,226,7.6,7.6,19,0.00,,---,0.00,VWS V14.01,2013-10-30 18:57:00,
2013-10-30 13:58:00,69.8,25.7,24.86,SW,226,7.6,7.6,19,0.00,,---,0.00,VWS V14.01,2013-10-30 18:58:00,
2013-10-30 13:59:00,69.8,25.7,24.86,SW,226,7.6,7.6,19,0.00,,---,0.00,VWS V14.01,2013-10-30 18:59:00,
2013-10-30 14:00:00,69.8,25.7,24.86,SW,226,7.6,7.6,19,0.00,,---,0.00,VWS V14.01,2013-10-30 19:00:00,
2013-10-30 14:01:00,70.0,25.9,24.86,SW,226,7.6,7.6,19,0.00,,---,0.00,VWS V14.01,2013-10-30 19:01:00,
2013-10-30 14:02:00,70.0,25.9,24.86,SW,226,7.6,7.6,19,0.00,,---,0.00,VWS V14.01,2013-10-30 19:02:00,
2013-10-30 14:04:00,70.0,25.9,24.86,SW,226,7.6,7.6,19,0.00,,---,0.00,VWS V14.01,2013-10-30 19:04:00,
2013-10-30 14:05:00,70.0,25.9,24.86,SW,226,7.6,7.6,19,0.00,,---,0.00,VWS V14.01,2013-10-30 19:05:00,
2013-10-30 14:06:00,70.0,25.9,24.86,SW,226,7.6,7.6,19,0.00,,---,0.00,VWS V14.01,2013-10-30 19:06:00,
2013-10-30 14:07:00,70.0,25.9,24.86,SW,226,7.6,7.6,19,0.00,,---,0.00,VWS V14.01,2013-10-30 19:07:00,
2013-10-30 14:08:00,70.0,23.2,24.86,SW,226,7.6,7.6,17,0.00,,---,0.00,VWS V14.01,2013-10-30 19:08:00,
2013-10-30 14:09:00,70.0,23.2,24.86,SW,226,7.6,7.6,17,0.00,,---,0.00,VWS V14.01,2013-10-30 19:09:00,
2013-10-30 14:10:00,70.0,23.2,24.86,SW,226,7.6,7.6,17,0.00,,---,0.00,VWS V14.01,2013-10-30 19:10:00,
2013-10-30 14:11:00,70.0,23.2,24.86,SW,226,7.6,7.6,17,0.00,,---,0.00,VWS V14.01,2013-10-30 19:11:00,
2013-10-30 14:13:00,70.0,23.2,24.86,SW,226,7.6,7.6,17,0.00,,---,0.00,VWS V14.01,2013-10-30 19:13:00,
2013-10-30 14:14:00,70.0,23.2,24.86,SW,226,7.6,7.6,17,0.00,,---,0.00,VWS V14.01,2013-10-30 19:14:00,
2013-10-30 14:15:00,70.0,23.2,24.86,SW,226,7.6,7.6,17,0.00,,---,0.00,VWS V14.01,2013-10-30 19:15:00,
2013-10-30 14:16:00,69.8,23.1,24.86,SW,226,7.6,7.6,17,0.00,,---,0.00,VWS V14.01,2013-10-30 19:16:00,
2013-10-30 14:18:00,69.8,23.1,24.86,SW,226,7.6,7.6,17,0.00,,---,0.00,VWS V14.01,2013-10-30 19:18:00,
2013-10-30 14:19:00,69.8,23.1,24.86,SW,226,7.6,7.6,17,0.00,,---,0.00,VWS V14.01,2013-10-30 19:19:00,
2013-10-30 14:20:00,69.4,22.8,24.86,SW,226,7.6,7.6,17,0.00,,---,0.00,VWS V14.01,2013-10-30 19:20:00,
2013-10-30 14:21:00,69.4,22.8,24.86,SW,226,7.6,7.6,17,0.00,,---,0.00,VWS V14.01,2013-10-30 19:21:00,
2013-10-30 14:23:00,69.4,22.8,24.86,WSW,256,8.7,8.7,17,0.00,,---,0.00,VWS V14.01,2013-10-30 19:23:00,
2013-10-30 14:24:00,69.4,22.8,24.86,WSW,256,8.7,8.7,17,0.00,,---,0.00,VWS V14.01,2013-10-30 19:24:00,
2013-10-30 14:25:00,69.1,22.5,24.86,WSW,256,8.7,8.7,17,0.00,,---,0.00,VWS V14.01,2013-10-30 19:25:00,
2013-10-30 14:26:00,69.1,22.5,24.86,WSW,256,8.7,8.7,17,0.00,,---,0.00,VWS V14.01,2013-10-30 19:26:00,
2013-10-30 14:28:00,68.9,22.3,24.86,WSW,256,8.7,8.7,17,0.00,,---,0.00,VWS V14.01,2013-10-30 19:28:00,
2013-10-30 14:29:00,68.9,22.3,24.86,WSW,256,8.7,8.7,17,0.00,,---,0.00,VWS V14.01,2013-10-30 19:29:00,
2013-10-30 14:30:00,68.9,22.3,24.86,WSW,256,8.7,8.7,17,0.00,,---,0.00,VWS V14.01,2013-10-30 19:30:00,
2013-10-30 14:31:00,68.9,22.3,24.86,SW,233,6.3,6.3,17,0.00,,---,0.00,VWS V14.01,2013-10-30 19:31:00,
2013-10-30 14:33:00,68.9,22.3,24.86,WSW,250,6.3,6.3,17,0.00,,---,0.00,VWS V14.01,2013-10-30 19:33:00,
2013-10-30 14:35:00,68.9,22.3,24.86,WSW,250,6.3,6.3,17,0.00,,---,0.00,VWS V14.01,2013-10-30 19:35:00,
2013-10-30 14:36:00,68.9,22.3,24.86,WSW,250,6.3,6.3,17,0.00,,---,0.00,VWS V14.01,2013-10-30 19:36:00,
2013-10-30 14:38:00,68.9,22.3,24.86,WSW,250,6.3,6.3,17,0.00,,---,0.00,VWS V14.01,2013-10-30 19:38:00,
2013-10-30 14:40:00,68.9,22.3,24.86,WSW,250,6.3,6.3,17,0.00,,---,0.00,VWS V14.01,2013-10-30 19:40:00,
2013-10-30 14:41:00,68.9,22.3,24.86,WSW,250,6.3,6.3,17,0.00,,---,0.00,VWS V14.01,2013-10-30 19:41:00,
2013-10-30 14:43:00,68.9,22.3,24.86,WSW,250,6.3,6.3,17,0.00,,---,0.00,VWS V14.01,2013-10-30 19:43:00,
2013-10-30 14:44:00,68.9,22.3,24.86,WSW,250,6.3,6.3,17,0.00,,---,0.00,VWS V14.01,2013-10-30 19:44:00,
2013-10-30 14:45:00,68.9,22.3,24.86,WSW,250,6.3,6.3,17,0.00,,---,0.00,VWS V14.01,2013-10-30 19:45:00,
2013-10-30 14:47:00,68.9,22.3,24.86,WSW,250,6.3,6.3,17,0.00,,---,0.00,VWS V14.01,2013-10-30 19:47:00,
2013-10-30 14:49:00,68.9,22.3,24.86,WSW,250,6.3,6.3,17,0.00,,---,0.00,VWS V14.01,2013-10-30 19:49:00,
2013-10-30 14:50:00,67.6,25.2,24.86,WSW,250,6.3,6.3,20,0.00,,---,0.00,VWS V14.01,2013-10-30 19:50:00,
2013-10-30 14:51:00,67.6,25.2,24.86,WSW,250,6.3,6.3,20,0.00,,---,0.00,VWS V14.01,2013-10-30 19:51:00,
2013-10-30 14:52:00,67.6,25.2,24.86,WSW,250,6.3,6.3,20,0.00,,---,0.00,VWS V14.01,2013-10-30 19:52:00,
2013-10-30 14:54:00,67.6,25.2,24.86,WSW,250,6.3,6.3,20,0.00,,---,0.00,VWS V14.01,2013-10-30 19:54:00,
2013-10-30 14:56:00,67.6,25.2,24.86,WSW,250,6.3,6.3,20,0.00,,---,0.00,VWS V14.01,2013-10-30 19:56:00,
2013-10-30 14:57:00,67.6,25.2,24.86,WSW,250,6.3,6.3,20,0.00,,---,0.00,VWS V14.01,2013-10-30 19:57:00,
2013-10-30 14:59:00,67.6,25.2,24.86,WSW,250,6.3,6.3,20,0.00,,---,0.00,VWS V14.01,2013-10-30 19:59:00,
2013-10-30 15:01:00,67.6,25.2,24.86,WNW,297,10.5,10.5,20,0.00,,---,0.00,VWS V14.01,2013-10-30 20:01:00,
2013-10-30 15:02:00,67.6,25.2,24.86,West,261,10.5,10.5,20,0.00,,---,0.00,VWS V14.01,2013-10-30 20:02:00,
2013-10-30 15:04:00,67.6,25.2,24.86,West,265,8.3,8.3,20,0.00,,---,0.00,VWS V14.01,2013-10-30 20:04:00,
2013-10-30 15:05:00,67.6,25.2,24.86,West,265,8.3,8.3,20,0.00,,---,0.00,VWS V14.01,2013-10-30 20:05:00,
2013-10-30 15:06:00,67.6,25.2,24.86,SW,227,7.6,8.3,20,0.00,,---,0.00,VWS V14.01,2013-10-30 20:06:00,
2013-10-30 15:07:00,67.6,25.2,24.86,SW,227,7.6,7.6,20,0.00,,---,0.00,VWS V14.01,2013-10-30 20:07:00,
2013-10-30 15:09:00,67.6,25.2,24.86,SW,227,7.6,7.6,20,0.00,,---,0.00,VWS V14.01,2013-10-30 20:09:00,
2013-10-30 15:10:00,67.6,25.2,24.86,WSW,251,3.6,3.6,20,0.00,,---,0.00,VWS V14.01,2013-10-30 20:10:00,
2013-10-30 15:11:00,67.3,24.9,24.86,WNW,283,4.9,4.9,20,0.00,,---,0.00,VWS V14.01,2013-10-30 20:11:00,
2013-10-30 15:12:00,67.3,24.9,24.86,WNW,283,4.9,4.9,20,0.00,,---,0.00,VWS V14.01,2013-10-30 20:12:00,
2013-10-30 15:13:00,67.3,24.9,24.86,WSW,243,5.8,5.8,20,0.00,,---,0.00,VWS V14.01,2013-10-30 20:13:00,
2013-10-30 15:14:00,67.5,25.0,24.86,WSW,243,5.8,5.8,20,0.00,,---,0.00,VWS V14.01,2013-10-30 20:14:00,
2013-10-30 15:15:00,67.5,25.0,24.86,WNW,285,6.3,6.3,20,0.00,,---,0.00,VWS V14.01,2013-10-30 20:15:00,
2013-10-30 15:16:00,67.5,25.0,24.86,WNW,285,6.3,6.3,20,0.00,,---,0.00,VWS V14.01,2013-10-30 20:16:00,
2013-10-30 15:17:00,67.5,25.0,24.86,WNW,285,6.3,6.3,20,0.00,,---,0.00,VWS V14.01,2013-10-30 20:17:00,
2013-10-30 15:18:00,67.1,24.7,24.86,WNW,286,6.3,6.3,20,0.00,,---,0.00,VWS V14.01,2013-10-30 20:18:00,
2013-10-30 15:20:00,66.7,26.7,24.86,WSW,247,4.9,4.9,22,0.00,,---,0.00,VWS V14.01,2013-10-30 20:20:00,
2013-10-30 15:22:00,66.7,26.7,24.86,West,260,6.3,6.3,22,0.00,,---,0.00,VWS V14.01,2013-10-30 20:22:00,
2013-10-30 15:23:00,66.6,26.6,24.86,West,260,6.3,6.3,22,0.00,,---,0.00,VWS V14.01,2013-10-30 20:23:00,
2013-10-30 15:25:00,66.6,26.6,24.86,SW,223,5.4,5.4,22,0.00,,---,0.00,VWS V14.01,2013-10-30 20:25:00,
2013-10-30 15:26:00,66.6,26.6,24.86,SW,223,5.4,5.4,22,0.00,,---,0.00,VWS V14.01,2013-10-30 20:26:00,
2013-10-30 15:27:00,66.6,26.6,24.86,WSW,237,7.6,7.6,22,0.00,,---,0.00,VWS V14.01,2013-10-30 20:27:00,
2013-10-30 15:28:00,66.6,26.6,24.86,WSW,257,8.7,8.7,22,0.00,,---,0.00,VWS V14.01,2013-10-30 20:28:00,
2013-10-30 15:31:00,66.6,26.6,24.86,West,262,6.7,6.7,22,0.00,,---,0.00,VWS V14.01,2013-10-30 20:31:00,
2013-10-30 15:32:00,66.6,26.6,24.86,West,265,8.1,8.1,22,0.00,,---,0.00,VWS V14.01,2013-10-30 20:32:00,
2013-10-30 15:33:00,66.6,26.6,24.86,West,271,8.3,8.3,22,0.00,,---,0.00,VWS V14.01,2013-10-30 20:33:00,
2013-10-30 15:34:00,66.6,26.6,24.86,West,271,8.3,8.3,22,0.00,,---,0.00,VWS V14.01,2013-10-30 20:34:00,
2013-10-30 15:36:00,66.6,26.6,24.86,West,275,7.2,8.3,22,0.00,,---,0.00,VWS V14.01,2013-10-30 20:36:00,
2013-10-30 15:37:00,67.1,24.7,24.86,West,275,7.2,7.2,20,0.00,,---,0.00,VWS V14.01,2013-10-30 20:37:00,
2013-10-30 15:38:00,67.1,24.7,24.86,West,279,6.3,6.3,20,0.00,,---,0.00,VWS V14.01,2013-10-30 20:38:00,
2013-10-30 15:39:00,67.1,24.7,24.86,West,274,5.8,6.3,20,0.00,,---,0.00,VWS V14.01,2013-10-30 20:39:00,
2013-10-30 15:41:00,67.1,24.7,24.86,West,268,7.6,7.6,20,0.00,,---,0.00,VWS V14.01,2013-10-30 20:41:00,
2013-10-30 15:42:00,67.1,24.7,24.86,WSW,256,5.8,5.8,20,0.00,,---,0.00,VWS V14.01,2013-10-30 20:42:00,
2013-10-30 15:43:00,67.1,24.7,24.86,WSW,256,5.8,5.8,20,0.00,,---,0.00,VWS V14.01,2013-10-30 20:43:00,
2013-10-30 15:45:00,67.1,24.7,24.86,WSW,247,8.1,8.1,20,0.00,,---,0.00,VWS V14.01,2013-10-30 20:45:00,
2013-10-30 15:46:00,67.1,24.7,24.86,WSW,247,8.1,8.1,20,0.00,,---,0.00,VWS V14.01,2013-10-30 20:46:00,
2013-10-30 15:47:00,67.1,24.7,24.86,WSW,247,8.1,8.1,20,0.00,,---,0.00,VWS V14.01,2013-10-30 20:47:00,
2013-10-30 15:48:00,67.1,24.7,24.86,WSW,247,8.1,8.1,20,0.00,,---,0.00,VWS V14.01,2013-10-30 20:48:00,
2013-10-30 15:49:00,67.1,24.7,24.86,WSW,247,8.1,8.1,20,0.00,,---,0.00,VWS V14.01,2013-10-30 20:49:00,
2013-10-30 15:50:00,66.7,26.7,24.86,WSW,247,8.1,8.1,22,0.00,,---,0.00,VWS V14.01,2013-10-30 20:50:00,
2013-10-30 15:51:00,66.7,26.7,24.86,WSW,240,7.6,7.6,22,0.00,,---,0.00,VWS V14.01,2013-10-30 20:51:00,
2013-10-30 15:52:00,66.7,26.7,24.86,WSW,240,7.6,7.6,22,0.00,,---,0.00,VWS V14.01,2013-10-30 20:52:00,
2013-10-30 15:53:00,66.7,26.7,24.86,WSW,254,7.6,7.6,22,0.00,,---,0.00,VWS V14.01,2013-10-30 20:53:00,
2013-10-30 15:54:00,66.7,26.7,24.86,WSW,254,7.6,7.6,22,0.00,,---,0.00,VWS V14.01,2013-10-30 20:54:00,
2013-10-30 15:55:00,66.7,26.7,24.86,WSW,254,7.6,7.6,22,0.00,,---,0.00,VWS V14.01,2013-10-30 20:55:00,
2013-10-30 15:56:00,66.7,26.7,24.86,SW,233,10.5,10.5,22,0.00,,---,0.00,VWS V14.01,2013-10-30 20:56:00,
2013-10-30 15:57:00,66.7,26.7,24.86,SW,233,10.5,10.5,22,0.00,,---,0.00,VWS V14.01,2013-10-30 20:57:00,
2013-10-30 15:58:00,66.7,26.7,24.86,SW,233,10.5,10.5,22,0.00,,---,0.00,VWS V14.01,2013-10-30 20:58:00,
2013-10-30 15:59:00,66.7,26.7,24.86,SW,233,10.5,10.5,22,0.00,,---,0.00,VWS V14.01,2013-10-30 20:59:00,
2013-10-30 16:00:00,66.7,26.7,24.81,WSW,239,3.6,10.5,22,0.00,,---,0.00,VWS V14.01,2013-10-30 21:00:00,
2013-10-30 16:02:00,65.8,27.0,24.81,WSW,239,3.6,3.6,23,0.00,,---,0.00,VWS V14.01,2013-10-30 21:02:00,
2013-10-30 16:03:00,64.9,27.3,24.81,WSW,239,3.6,3.6,24,0.00,,---,0.00,VWS V14.01,2013-10-30 21:03:00,
2013-10-30 16:04:00,64.9,27.3,24.81,WSW,239,3.6,3.6,24,0.00,,---,0.00,VWS V14.01,2013-10-30 21:04:00,
2013-10-30 16:06:00,64.9,27.3,24.81,SW,221,6.3,6.3,24,0.00,,---,0.00,VWS V14.01,2013-10-30 21:06:00,
2013-10-30 16:07:00,64.9,27.3,24.81,SW,221,6.3,6.3,24,0.00,,---,0.00,VWS V14.01,2013-10-30 21:07:00,
2013-10-30 16:09:00,64.9,27.3,24.81,SW,236,6.3,6.3,24,0.00,,---,0.00,VWS V14.01,2013-10-30 21:09:00,
2013-10-30 16:10:00,64.9,27.3,24.81,WSW,239,8.1,8.1,24,0.00,,---,0.00,VWS V14.01,2013-10-30 21:10:00,
2013-10-30 16:11:00,64.9,27.3,24.81,SW,216,10.1,10.1,24,0.00,,---,0.00,VWS V14.01,2013-10-30 21:11:00,
2013-10-30 16:13:00,64.9,27.3,24.81,WSW,255,6.3,6.3,24,0.00,,---,0.00,VWS V14.01,2013-10-30 21:13:00,
2013-10-30 16:14:00,64.9,27.3,24.81,WSW,249,10.1,10.1,24,0.00,,---,0.00,VWS V14.01,2013-10-30 21:14:00,
2013-10-30 16:15:00,64.9,27.3,24.81,WSW,249,10.1,10.1,24,0.00,,---,0.00,VWS V14.01,2013-10-30 21:15:00,
2013-10-30 16:17:00,64.9,27.3,24.81,SW,235,5.4,5.4,24,0.00,,---,0.00,VWS V14.01,2013-10-30 21:17:00,
2013-10-30 16:18:00,64.9,27.3,24.81,SW,235,4.9,4.9,24,0.00,,---,0.00,VWS V14.01,2013-10-30 21:18:00,
2013-10-30 16:19:00,64.9,27.3,24.81,SW,234,7.6,7.6,24,0.00,,---,0.00,VWS V14.01,2013-10-30 21:19:00,
2013-10-30 16:20:00,64.9,27.3,24.81,SW,234,7.6,7.6,24,0.00,,---,0.00,VWS V14.01,2013-10-30 21:20:00,
2013-10-30 16:23:00,64.9,27.3,24.78,SW,229,10.5,10.5,24,0.00,,---,0.00,VWS V14.01,2013-10-30 21:23:00,
2013-10-30 16:24:00,64.9,27.3,24.78,SW,229,10.5,10.5,24,0.00,,---,0.00,VWS V14.01,2013-10-30 21:24:00,
2013-10-30 16:25:00,65.1,26.4,24.78,SW,229,10.5,10.5,23,0.00,,---,0.00,VWS V14.01,2013-10-30 21:25:00,
2013-10-30 16:28:00,65.1,26.4,24.78,SW,225,8.1,8.1,23,0.00,,---,0.00,VWS V14.01,2013-10-30 21:28:00,
2013-10-30 16:29:00,65.1,26.4,24.78,WSW,243,5.8,8.1,23,0.00,,---,0.00,VWS V14.01,2013-10-30 21:29:00,
2013-10-30 16:30:00,65.1,26.4,24.78,WSW,243,5.8,5.8,23,0.00,,---,0.00,VWS V14.01,2013-10-30 21:30:00,
2013-10-30 16:31:00,65.1,26.4,24.78,SW,224,5.8,5.8,23,0.00,,---,0.00,VWS V14.01,2013-10-30 21:31:00,
2013-10-30 16:33:00,65.1,26.4,24.78,SW,224,5.8,5.8,23,0.00,,---,0.00,VWS V14.01,2013-10-30 21:33:00,
2013-10-30 16:34:00,65.1,26.4,24.78,SW,233,5.8,5.8,23,0.00,,---,0.00,VWS V14.01,2013-10-30 21:34:00,
2013-10-30 16:35:00,65.1,26.4,24.78,SW,235,5.4,5.8,23,0.00,,---,0.00,VWS V14.01,2013-10-30 21:35:00,
2013-10-30 16:36:00,65.1,26.4,24.78,WSW,252,8.7,8.7,23,0.00,,---,0.00,VWS V14.01,2013-10-30 21:36:00,
2013-10-30 16:38:00,65.1,26.4,24.78,SW,225,8.1,8.7,23,0.00,,---,0.00,VWS V14.01,2013-10-30 21:38:00,
2013-10-30 16:39:00,65.1,26.4,24.78,SW,225,8.1,8.1,23,0.00,,---,0.00,VWS V14.01,2013-10-30 21:39:00,
2013-10-30 16:40:00,65.1,26.4,24.78,WSW,246,8.1,8.1,23,0.00,,---,0.00,VWS V14.01,2013-10-30 21:40:00,
2013-10-30 16:42:00,65.1,26.4,24.78,WSW,246,8.1,8.1,23,0.00,,---,0.00,VWS V14.01,2013-10-30 21:42:00,
2013-10-30 16:44:00,65.1,26.4,24.78,SW,216,6.3,6.3,23,0.00,,---,0.00,VWS V14.01,2013-10-30 21:44:00,
2013-10-30 16:45:00,65.1,26.4,24.78,SW,234,5.8,8.7,23,0.00,,---,0.00,VWS V14.01,2013-10-30 21:45:00,
2013-10-30 16:46:00,65.1,26.4,24.78,SW,234,5.8,5.8,23,0.00,,---,0.00,VWS V14.01,2013-10-30 21:46:00,
2013-10-30 16:47:00,65.1,26.4,24.78,SW,234,5.8,5.8,23,0.00,,---,0.00,VWS V14.01,2013-10-30 21:47:00,
2013-10-30 16:49:00,66.0,27.2,24.78,SW,223,5.8,8.1,23,0.00,,---,0.00,VWS V14.01,2013-10-30 21:49:00,
2013-10-30 16:50:00,66.0,27.2,24.78,SW,223,5.8,5.8,23,0.00,,---,0.00,VWS V14.01,2013-10-30 21:50:00,
2013-10-30 16:51:00,66.0,27.2,24.78,SW,223,5.8,5.8,23,0.00,,---,0.00,VWS V14.01,2013-10-30 21:51:00,
2013-10-30 16:52:00,66.0,27.2,24.78,WSW,240,6.3,6.3,23,0.00,,---,0.00,VWS V14.01,2013-10-30 21:52:00,
2013-10-30 16:54:00,66.0,27.2,24.78,WSW,240,6.3,6.3,23,0.00,,---,0.00,VWS V14.01,2013-10-30 21:54:00,
2013-10-30 16:56:00,66.0,27.2,24.78,SW,226,8.1,8.1,23,0.00,,---,0.00,VWS V14.01,2013-10-30 21:56:00,
2013-10-30 16:57:00,66.0,27.2,24.78,SW,228,5.8,5.8,23,0.00,,---,0.00,VWS V14.01,2013-10-30 21:57:00,
2013-10-30 16:59:00,66.0,27.2,24.78,SSW,213,6.7,6.7,23,0.00,,---,0.00,VWS V14.01,2013-10-30 21:59:00,
2013-10-30 17:01:00,66.0,27.2,24.78,SSW,213,6.7,6.7,23,0.00,,---,0.00,VWS V14.01,2013-10-30 22:01:00,
2013-10-30 17:02:00,66.0,27.2,24.78,SSW,213,6.7,6.7,23,0.00,,---,0.00,VWS V14.01,2013-10-30 22:02:00,
2013-10-30 17:03:00,66.0,27.2,24.78,SSW,213,6.7,6.7,23,0.00,,---,0.00,VWS V14.01,2013-10-30 22:03:00,
2013-10-30 17:05:00,66.0,27.2,24.78,SSW,213,6.7,6.7,23,0.00,,---,0.00,VWS V14.01,2013-10-30 22:05:00,
2013-10-30 17:06:00,66.0,27.2,24.78,SSW,213,6.7,6.7,23,0.00,,---,0.00,VWS V14.01,2013-10-30 22:06:00,
2013-10-30 17:07:00,66.0,27.2,24.78,SSW,213,6.7,6.7,23,0.00,,---,0.00,VWS V14.01,2013-10-30 22:07:00,
2013-10-30 17:08:00,66.0,27.2,24.78,SSW,213,6.7,6.7,23,0.00,,---,0.00,VWS V14.01,2013-10-30 22:08:00,
2013-10-30 17:10:00,66.0,27.2,24.78,SSW,213,6.7,6.7,23,0.00,,---,0.00,VWS V14.01,2013-10-30 22:10:00,
2013-10-30 17:11:00,65.5,26.7,24.78,SSW,213,6.7,6.7,23,0.00,,---,0.00,VWS V14.01,2013-10-30 22:11:00,
2013-10-30 17:12:00,65.5,26.7,24.78,SSW,213,6.7,6.7,23,0.00,,---,0.00,VWS V14.01,2013-10-30 22:12:00,
2013-10-30 17:14:00,65.5,26.7,24.78,SSW,213,6.7,6.7,23,0.00,,---,0.00,VWS V14.01,2013-10-30 22:14:00,
2013-10-30 17:15:00,65.5,26.7,24.78,SSW,213,6.7,6.7,23,0.00,,---,0.00,VWS V14.01,2013-10-30 22:15:00,
2013-10-30 17:16:00,65.5,26.7,24.78,West,268,8.7,8.7,23,0.00,,---,0.00,VWS V14.01,2013-10-30 22:16:00,
2013-10-30 17:17:00,65.5,26.7,24.78,NW,307,11.0,11.0,23,0.00,,---,0.00,VWS V14.01,2013-10-30 22:17:00,
2013-10-30 17:19:00,65.5,26.7,24.78,West,277,8.7,8.7,23,0.00,,---,0.00,VWS V14.01,2013-10-30 22:19:00,
2013-10-30 17:20:00,65.5,26.7,24.78,WNW,288,8.3,8.7,23,0.00,,---,0.00,VWS V14.01,2013-10-30 22:20:00,
2013-10-30 17:22:00,65.5,26.7,24.78,WNW,288,8.3,8.3,23,0.00,,---,0.00,VWS V14.01,2013-10-30 22:22:00,
2013-10-30 17:23:00,65.5,26.7,24.78,WNW,288,8.3,8.3,23,0.00,,---,0.00,VWS V14.01,2013-10-30 22:23:00,
2013-10-30 17:24:00,64.4,25.8,24.78,WSW,258,8.7,8.7,23,0.00,,---,0.00,VWS V14.01,2013-10-30 22:24:00,
2013-10-30 17:25:00,64.4,25.8,24.78,WSW,258,8.7,8.7,23,0.00,,---,0.00,VWS V14.01,2013-10-30 22:25:00,
2013-10-30 17:27:00,64.4,25.8,24.78,WNW,301,7.6,7.6,23,0.00,,---,0.00,VWS V14.01,2013-10-30 22:27:00,
2013-10-30 17:28:00,64.4,25.8,24.78,WNW,297,8.1,8.1,23,0.00,,---,0.00,VWS V14.01,2013-10-30 22:28:00,